GEFSNE_prec_meanprecacc_006.txt.gz
Total_Precipitation_Accumulation
0.00 0.00 0.00 0.00 0.00 0.00 0.01 0.01 0.02 0.02 0.01 0.01 0.01 0.01 0.02 0.03 0.05 0.07 0.06 0.05 0.07 0.05 0.05 0.09 0.11 0.13 0.15 0.18 0.21 0.22 0.18 0.11 0.04 0.00 0.00 0.00 0.00 0.01
0.00 0.00 0.00 0.00 0.00 0.00 0.00 0.01 0.01 0.02 0.01 0.00 0.00 0.00 0.02 0.03 0.04 0.07 0.07 0.07 0.08 0.08 0.07 0.08 0.10 0.11 0.11 0.13 0.15 0.16 0.15 0.11 0.05 0.01 0.00 0.00 0.00 0.00
0.00 0.00 0.00 0.00 0.00 0.00 0.00 0.00 0.01 0.03 0.02 0.00 0.00 0.00 0.01 0.02 0.03 0.05 0.06 0.05 0.04 0.06 0.08 0.08 0.12 0.13 0.12 0.11 0.12 0.13 0.12 0.10 0.05 0.02 0.01 0.00 0.00 0.00
0.00 0.00 0.00 0.00 0.00 0.00 0.00 0.00 0.01 0.01 0.02 0.01 0.00 0.00 0.01 0.01 0.03 0.04 0.03 0.03 0.02 0.02 0.06 0.09 0.12 0.15 0.16 0.15 0.12 0.12 0.12 0.11 0.07 0.02 0.00 0.00 0.00 0.00
0.00 0.00 0.00 0.00 0.00 0.00 0.00 0.00 0.00 0.00 0.00 0.00 0.00 0.00 0.01 0.01 0.02 0.03 0.04 0.05 0.03 0.02 0.03 0.06 0.09 0.12 0.16 0.18 0.17 0.13 0.11 0.10 0.08 0.03 0.01 0.00 0.00 0.00
0.00 0.00 0.00 0.00 0.00 0.00 0.00 0.00 0.00 0.00 0.00 0.00 0.00 0.00 0.00 0.01 0.02 0.03 0.05 0.06 0.08 0.07 0.06 0.04 0.05 0.06 0.08 0.10 0.13 0.17 0.15 0.12 0.09 0.05 0.02 0.00 0.00 0.00
0.00 0.00 0.00 0.00 0.00 0.00 0.00 0.00 0.00 0.00 0.00 0.00 0.00 0.00 0.00 0.01 0.01 0.01 0.02 0.03 0.06 0.10 0.12 0.09 0.06 0.03 0.03 0.04 0.06 0.09 0.15 0.17 0.15 0.10 0.05 0.02 0.00 0.00
0.00 0.00 0.01 0.01 0.01 0.01 0.01 0.01 0.01 0.00 0.00 0.00 0.00 0.00 0.00 0.00 0.01 0.01 0.01 0.01 0.01 0.01 0.03 0.05 0.08 0.08 0.03 0.02 0.02 0.03 0.04 0.08 0.13 0.15 0.12 0.06 0.02 0.01
0.00 0.00 0.00 0.00 0.01 0.00 0.00 0.00 0.00 0.00 0.00 0.00 0.00 0.00 0.00 0.00 0.01 0.02 0.02 0.02 0.01 0.00 0.00 0.01 0.02 0.04 0.04 0.03 0.02 0.02 0.03 0.04 0.05 0.07 0.09 0.07 0.04 0.02
0.00 0.00 0.00 0.00 0.00 0.00 0.00 0.00 0.00 0.00 0.00 0.00 0.00 0.00 0.00 0.00 0.01 0.02 0.02 0.02 0.01 0.01 0.01 0.01 0.00 0.01 0.01 0.03 0.05 0.06 0.04 0.03 0.03 0.04 0.04 0.03 0.02 0.01
0.00 0.00 0.00 0.00 0.00 0.01 0.00 0.00 0.00 0.00 0.00 0.00 0.00 0.01 0.01 0.01 0.02 0.03 0.03 0.04 0.02 0.01 0.01 0.01 0.00 0.00 0.00 0.01 0.02 0.06 0.09 0.08 0.06 0.04 0.04 0.04 0.03 0.02
0.00 0.00 0.00 0.00 0.01 0.01 0.01 0.01 0.00 0.00 0.00 0.00 0.00 0.00 0.00 0.00 0.01 0.02 0.02 0.03 0.03 0.02 0.01 0.01 0.00 0.00 0.01 0.00 0.01 0.02 0.06 0.12 0.15 0.13 0.12 0.10 0.08 0.06
0.00 0.00 0.00 0.00 0.01 0.01 0.01 0.00 0.01 0.01 0.00 0.00 0.00 0.01 0.01 0.00 0.00 0.01 0.01 0.03 0.03 0.03 0.02 0.02 0.02 0.01 0.01 0.00 0.00 0.00 0.01 0.04 0.11 0.19 0.22 0.23 0.20 0.15
0.00 0.00 0.00 0.00 0.00 0.00 0.00 0.00 0.00 0.00 0.00 0.00 0.01 0.01 0.01 0.01 0.01 0.01 0.02 0.03 0.03 0.03 0.03 0.04 0.05 0.05 0.03 0.02 0.01 0.00 0.01 0.02 0.05 0.13 0.21 0.31 0.33 0.26
0.00 0.00 0.00 0.00 0.00 0.00 0.00 0.00 0.00 0.00 0.00 0.00 0.00 0.01 0.01 0.01 0.01 0.02 0.02 0.03 0.04 0.04 0.04 0.04 0.04 0.04 0.05 0.04 0.02 0.01 0.01 0.01 0.03 0.07 0.14 0.23 0.31 0.32
0.00 0.00 0.00 0.00 0.00 0.00 0.00 0.00 0.00 0.00 0.00 0.01 0.01 0.00 0.00 0.00 0.01 0.01 0.02 0.03 0.05 0.05 0.04 0.04 0.04 0.05 0.05 0.05 0.03 0.02 0.02 0.02 0.03 0.06 0.10 0.16 0.22 0.25
0.00 0.00 0.00 0.00 0.00 0.00 0.00 0.00 0.00 0.00 0.00 0.00 0.01 0.01 0.01 0.00 0.00 0.01 0.02 0.04 0.07 0.07 0.06 0.06 0.07 0.08 0.08 0.07 0.06 0.04 0.04 0.04 0.04 0.07 0.10 0.15 0.21 0.23
0.00 0.00 0.00 0.00 0.00 0.00 0.00 0.00 0.00 0.00 0.00 0.00 0.01 0.01 0.01 0.01 0.01 0.01 0.02 0.04 0.06 0.08 0.08 0.09 0.12 0.16 0.20 0.20 0.14 0.06 0.05 0.08 0.10 0.12 0.13 0.15 0.18 0.16
0.00 0.00 0.00 0.00 0.00 0.00 0.00 0.00 0.00 0.00 0.00 0.01 0.01 0.01 0.01 0.02 0.02 0.02 0.02 0.05 0.09 0.09 0.09 0.09 0.12 0.19 0.25 0.26 0.22 0.10 0.04 0.04 0.09 0.14 0.15 0.14 0.13 0.10
0.00 0.00 0.00 0.00 0.00 0.00 0.00 0.00 0.00 0.00 0.00 0.00 0.01 0.01 0.01 0.03 0.03 0.03 0.04 0.08 0.12 0.13 0.14 0.15 0.16 0.16 0.21 0.18 0.14 0.10 0.04 0.03 0.08 0.11 0.11 0.09 0.11 0.14
0.00 0.00 0.00 0.00 0.00 0.00 0.00 0.00 0.00 0.00 0.00 0.01 0.01 0.01 0.01 0.03 0.03 0.03 0.05 0.09 0.15 0.18 0.19 0.18 0.19 0.21 0.20 0.19 0.17 0.16 0.14 0.09 0.07 0.07 0.07 0.06 0.07 0.09
0.00 0.00 0.00 0.00 0.00 0.00 0.00 0.00 0.00 0.00 0.00 0.01 0.01 0.01 0.02 0.03 0.04 0.04 0.06 0.10 0.14 0.17 0.20 0.22 0.23 0.24 0.27 0.27 0.22 0.17 0.17 0.17 0.16 0.13 0.10 0.05 0.02 0.02
0.00 0.00 0.00 0.00 0.00 0.00 0.00 0.00 0.00 0.00 0.00 0.01 0.01 0.02 0.03 0.04 0.05 0.06 0.07 0.09 0.12 0.14 0.16 0.21 0.26 0.25 0.26 0.24 0.18 0.15 0.15 0.14 0.13 0.11 0.09 0.04 0.01 0.01

GEFSNE_prec_meanprecacc_012.txt.gz
Total_Precipitation_Accumulation
0.00 0.00 0.00 0.00 0.00 0.00 0.01 0.01 0.02 0.02 0.01 0.01 0.01 0.01 0.02 0.04 0.05 0.07 0.06 0.05 0.07 0.05 0.06 0.09 0.12 0.13 0.15 0.19 0.22 0.26 0.33 0.44 0.50 0.48 0.39 0.23 0.13 0.11
0.00 0.00 0.00 0.00 0.00 0.00 0.00 0.01 0.01 0.02 0.01 0.00 0.00 0.00 0.02 0.03 0.04 0.07 0.07 0.07 0.08 0.09 0.08 0.10 0.12 0.13 0.13 0.14 0.15 0.17 0.20 0.26 0.36 0.46 0.50 0.45 0.30 0.18
0.00 0.00 0.00 0.00 0.00 0.00 0.00 0.01 0.01 0.03 0.02 0.00 0.00 0.00 0.01 0.02 0.03 0.05 0.06 0.05 0.04 0.07 0.09 0.11 0.14 0.16 0.14 0.13 0.13 0.14 0.15 0.17 0.22 0.32 0.45 0.53 0.47 0.32
0.00 0.00 0.00 0.00 0.00 0.00 0.00 0.00 0.01 0.02 0.02 0.01 0.00 0.00 0.01 0.01 0.03 0.04 0.03 0.03 0.02 0.02 0.06 0.10 0.14 0.17 0.18 0.17 0.14 0.13 0.14 0.16 0.17 0.20 0.28 0.39 0.45 0.40
0.00 0.00 0.00 0.00 0.00 0.00 0.00 0.00 0.00 0.00 0.01 0.01 0.00 0.00 0.01 0.01 0.02 0.03 0.04 0.05 0.04 0.03 0.05 0.09 0.14 0.17 0.20 0.21 0.20 0.15 0.13 0.13 0.16 0.18 0.20 0.25 0.32 0.36
0.00 0.00 0.00 0.00 0.00 0.00 0.00 0.00 0.00 0.00 0.00 0.00 0.00 0.00 0.00 0.01 0.02 0.03 0.05 0.06 0.08 0.08 0.08 0.08 0.11 0.15 0.16 0.17 0.19 0.21 0.18 0.16 0.16 0.18 0.19 0.19 0.20 0.22
0.00 0.00 0.00 0.01 0.01 0.01 0.01 0.00 0.00 0.00 0.00 0.00 0.00 0.00 0.00 0.01 0.01 0.01 0.02 0.03 0.06 0.10 0.12 0.10 0.09 0.10 0.11 0.14 0.16 0.18 0.23 0.25 0.23 0.21 0.21 0.22 0.20 0.17
0.00 0.00 0.01 0.02 0.02 0.03 0.04 0.03 0.02 0.01 0.01 0.00 0.00 0.00 0.00 0.00 0.01 0.01 0.01 0.02 0.01 0.01 0.03 0.05 0.09 0.11 0.09 0.10 0.14 0.17 0.18 0.21 0.25 0.28 0.27 0.26 0.25 0.21
0.00 0.00 0.00 0.00 0.01 0.01 0.01 0.01 0.00 0.00 0.00 0.00 0.00 0.00 0.00 0.00 0.01 0.02 0.02 0.02 0.01 0.00 0.01 0.01 0.02 0.05 0.06 0.08 0.12 0.15 0.18 0.20 0.21 0.22 0.26 0.29 0.28 0.28
0.00 0.00 0.00 0.00 0.00 0.00 0.00 0.00 0.00 0.00 0.00 0.00 0.00 0.00 0.00 0.00 0.01 0.02 0.03 0.03 0.02 0.01 0.01 0.02 0.01 0.01 0.01 0.04 0.08 0.11 0.12 0.15 0.18 0.19 0.19 0.21 0.24 0.27
0.00 0.00 0.00 0.00 0.00 0.01 0.01 0.00 0.00 0.00 0.00 0.00 0.00 0.01 0.01 0.01 0.02 0.03 0.04 0.04 0.03 0.01 0.01 0.02 0.01 0.01 0.01 0.01 0.03 0.07 0.11 0.13 0.14 0.16 0.18 0.18 0.17 0.20
0.00 0.00 0.00 0.00 0.01 0.01 0.01 0.01 0.00 0.00 0.00 0.00 0.00 0.00 0.00 0.00 0.01 0.02 0.03 0.04 0.04 0.03 0.01 0.02 0.02 0.02 0.02 0.01 0.01 0.02 0.06 0.13 0.17 0.19 0.22 0.23 0.23 0.22
0.00 0.00 0.00 0.00 0.01 0.01 0.01 0.00 0.01 0.01 0.01 0.00 0.00 0.01 0.01 0.00 0.00 0.01 0.01 0.03 0.03 0.04 0.02 0.03 0.04 0.03 0.03 0.02 0.01 0.01 0.02 0.05 0.12 0.20 0.26 0.30 0.33 0.33
0.00 0.00 0.00 0.00 0.00 0.00 0.00 0.00 0.00 0.00 0.00 0.00 0.01 0.01 0.01 0.01 0.01 0.01 0.02 0.03 0.03 0.03 0.03 0.05 0.06 0.06 0.05 0.03 0.02 0.01 0.01 0.03 0.07 0.14 0.22 0.34 0.39 0.38
0.00 0.00 0.00 0.00 0.00 0.00 0.00 0.00 0.00 0.00 0.00 0.00 0.00 0.01 0.01 0.01 0.01 0.02 0.02 0.03 0.04 0.04 0.04 0.05 0.04 0.05 0.06 0.06 0.04 0.02 0.02 0.02 0.04 0.09 0.16 0.26 0.35 0.40
0.00 0.00 0.00 0.00 0.00 0.00 0.00 0.00 0.00 0.00 0.00 0.01 0.01 0.00 0.00 0.01 0.01 0.01 0.02 0.04 0.05 0.05 0.04 0.04 0.04 0.05 0.06 0.06 0.05 0.04 0.03 0.03 0.04 0.08 0.12 0.18 0.26 0.32
0.00 0.00 0.00 0.00 0.00 0.00 0.00 0.00 0.00 0.00 0.00 0.00 0.01 0.01 0.01 0.01 0.00 0.01 0.02 0.04 0.07 0.08 0.06 0.06 0.07 0.08 0.08 0.08 0.08 0.07 0.06 0.06 0.06 0.09 0.13 0.18 0.24 0.29
0.00 0.00 0.00 0.00 0.00 0.00 0.00 0.00 0.00 0.00 0.00 0.01 0.01 0.01 0.01 0.01 0.01 0.01 0.02 0.05 0.07 0.08 0.08 0.09 0.12 0.16 0.21 0.21 0.16 0.10 0.08 0.09 0.12 0.14 0.18 0.21 0.23 0.21
0.00 0.00 0.00 0.00 0.00 0.00 0.00 0.00 0.00 0.00 0.00 0.01 0.01 0.01 0.02 0.02 0.02 0.02 0.03 0.06 0.09 0.10 0.10 0.10 0.13 0.21 0.26 0.28 0.24 0.14 0.09 0.08 0.11 0.18 0.23 0.23 0.21 0.17
0.00 0.00 0.00 0.00 0.00 0.00 0.00 0.00 0.00 0.00 0.00 0.01 0.01 0.01 0.02 0.03 0.04 0.04 0.05 0.09 0.12 0.14 0.14 0.15 0.16 0.18 0.22 0.21 0.17 0.15 0.11 0.11 0.13 0.17 0.21 0.21 0.23 0.27
0.00 0.00 0.00 0.00 0.00 0.00 0.00 0.00 0.00 0.00 0.00 0.01 0.01 0.01 0.01 0.03 0.04 0.04 0.06 0.10 0.16 0.19 0.20 0.18 0.19 0.22 0.23 0.24 0.27 0.27 0.24 0.19 0.17 0.17 0.16 0.16 0.21 0.26
0.00 0.00 0.00 0.00 0.00 0.00 0.00 0.00 0.00 0.00 0.00 0.01 0.01 0.01 0.02 0.04 0.05 0.05 0.07 0.11 0.15 0.18 0.21 0.23 0.24 0.26 0.32 0.37 0.36 0.34 0.33 0.30 0.29 0.29 0.26 0.17 0.12 0.13
0.00 0.00 0.00 0.00 0.00 0.00 0.00 0.00 0.00 0.00 0.00 0.01 0.01 0.02 0.03 0.05 0.06 0.07 0.09 0.11 0.13 0.15 0.18 0.23 0.28 0.32 0.37 0.37 0.35 0.35 0.32 0.26 0.24 0.26 0.29 0.25 0.16 0.11

GEFSNE_prec_meanprecacc_018.txt.gz
Total_Precipitation_Accumulation
0.00 0.00 0.00 0.00 0.00 0.00 0.01 0.01 0.02 0.02 0.01 0.01 0.01 0.01 0.02 0.04 0.05 0.07 0.06 0.05 0.07 0.05 0.06 0.09 0.12 0.13 0.15 0.19 0.22 0.26 0.33 0.44 0.50 0.49 0.43 0.33 0.28 0.27
0.00 0.00 0.00 0.00 0.00 0.00 0.00 0.01 0.01 0.02 0.01 0.00 0.00 0.00 0.02 0.03 0.04 0.07 0.07 0.07 0.08 0.09 0.08 0.10 0.12 0.13 0.13 0.14 0.15 0.17 0.20 0.26 0.36 0.46 0.51 0.48 0.39 0.33
0.00 0.00 0.00 0.00 0.00 0.00 0.01 0.01 0.02 0.03 0.02 0.00 0.00 0.00 0.01 0.02 0.03 0.05 0.06 0.05 0.04 0.07 0.09 0.11 0.14 0.16 0.14 0.13 0.13 0.14 0.15 0.17 0.22 0.32 0.46 0.54 0.53 0.44
0.00 0.00 0.00 0.00 0.00 0.00 0.01 0.01 0.02 0.02 0.03 0.01 0.00 0.01 0.01 0.02 0.03 0.04 0.03 0.03 0.02 0.02 0.06 0.10 0.14 0.17 0.18 0.17 0.14 0.13 0.14 0.16 0.18 0.20 0.28 0.39 0.49 0.52
0.00 0.00 0.00 0.00 0.00 0.00 0.01 0.01 0.01 0.02 0.02 0.03 0.02 0.01 0.01 0.02 0.03 0.03 0.04 0.05 0.04 0.03 0.05 0.09 0.14 0.17 0.20 0.21 0.20 0.15 0.13 0.14 0.16 0.18 0.20 0.25 0.34 0.43
0.00 0.00 0.00 0.00 0.00 0.00 0.00 0.01 0.01 0.02 0.02 0.02 0.02 0.02 0.01 0.01 0.02 0.03 0.05 0.06 0.08 0.08 0.08 0.08 0.11 0.15 0.16 0.17 0.19 0.21 0.19 0.17 0.17 0.19 0.20 0.20 0.21 0.25
0.01 0.00 0.01 0.01 0.02 0.02 0.02 0.01 0.01 0.01 0.01 0.01 0.01 0.01 0.01 0.01 0.01 0.01 0.02 0.03 0.06 0.10 0.12 0.10 0.09 0.10 0.11 0.14 0.16 0.18 0.23 0.25 0.24 0.22 0.23 0.23 0.21 0.20
0.01 0.01 0.01 0.02 0.04 0.06 0.06 0.04 0.02 0.01 0.01 0.01 0.01 0.01 0.01 0.01 0.01 0.01 0.01 0.02 0.01 0.01 0.03 0.05 0.09 0.11 0.09 0.10 0.14 0.17 0.18 0.21 0.26 0.29 0.29 0.27 0.27 0.24
0.00 0.00 0.00 0.01 0.01 0.01 0.02 0.01 0.01 0.00 0.01 0.01 0.01 0.01 0.01 0.01 0.02 0.02 0.02 0.02 0.01 0.00 0.01 0.01 0.02 0.05 0.06 0.08 0.12 0.15 0.18 0.20 0.22 0.23 0.28 0.31 0.31 0.32
0.00 0.00 0.00 0.00 0.00 0.00 0.00 0.00 0.00 0.00 0.00 0.00 0.00 0.00 0.00 0.00 0.01 0.02 0.03 0.03 0.02 0.01 0.01 0.02 0.01 0.01 0.01 0.04 0.08 0.11 0.13 0.15 0.18 0.20 0.21 0.24 0.28 0.33
0.00 0.00 0.00 0.00 0.00 0.01 0.01 0.00 0.00 0.00 0.00 0.00 0.00 0.01 0.01 0.01 0.02 0.03 0.04 0.04 0.03 0.01 0.01 0.02 0.01 0.01 0.01 0.01 0.03 0.07 0.11 0.13 0.15 0.17 0.20 0.22 0.23 0.28
0.00 0.00 0.00 0.00 0.01 0.01 0.01 0.01 0.00 0.00 0.00 0.00 0.00 0.00 0.00 0.00 0.01 0.02 0.03 0.04 0.04 0.03 0.01 0.02 0.02 0.02 0.02 0.01 0.02 0.03 0.07 0.13 0.17 0.20 0.23 0.27 0.30 0.31
0.00 0.00 0.00 0.00 0.01 0.01 0.01 0.00 0.01 0.01 0.01 0.00 0.00 0.01 0.01 0.00 0.00 0.01 0.01 0.03 0.04 0.04 0.02 0.03 0.04 0.03 0.03 0.02 0.01 0.01 0.02 0.05 0.12 0.21 0.27 0.33 0.38 0.43
0.00 0.00 0.00 0.00 0.00 0.00 0.00 0.00 0.00 0.00 0.00 0.00 0.01 0.01 0.01 0.01 0.01 0.01 0.02 0.03 0.03 0.03 0.03 0.05 0.06 0.06 0.05 0.04 0.02 0.01 0.01 0.03 0.07 0.14 0.23 0.35 0.42 0.43
0.00 0.00 0.00 0.00 0.00 0.00 0.00 0.00 0.00 0.00 0.00 0.00 0.00 0.01 0.01 0.01 0.01 0.02 0.02 0.03 0.04 0.04 0.04 0.05 0.04 0.05 0.07 0.06 0.04 0.02 0.02 0.02 0.04 0.09 0.16 0.26 0.36 0.42
0.00 0.00 0.00 0.00 0.00 0.00 0.00 0.00 0.00 0.00 0.00 0.01 0.01 0.00 0.00 0.01 0.01 0.01 0.02 0.04 0.05 0.05 0.04 0.04 0.04 0.05 0.06 0.06 0.06 0.04 0.03 0.03 0.04 0.08 0.12 0.18 0.27 0.33
0.01 0.00 0.00 0.00 0.00 0.00 0.00 0.00 0.00 0.00 0.00 0.00 0.01 0.01 0.01 0.01 0.00 0.01 0.02 0.04 0.07 0.08 0.06 0.06 0.07 0.08 0.08 0.08 0.08 0.07 0.06 0.06 0.06 0.09 0.13 0.18 0.24 0.29
0.00 0.00 0.00 0.00 0.00 0.00 0.00 0.00 0.00 0.00 0.00 0.01 0.01 0.01 0.01 0.01 0.01 0.01 0.02 0.05 0.07 0.08 0.08 0.09 0.12 0.16 0.21 0.21 0.16 0.10 0.08 0.10 0.12 0.15 0.18 0.21 0.23 0.21
0.00 0.00 0.00 0.00 0.00 0.00 0.00 0.00 0.00 0.00 0.00 0.01 0.01 0.01 0.02 0.02 0.02 0.02 0.03 0.06 0.09 0.10 0.10 0.10 0.13 0.21 0.27 0.28 0.24 0.14 0.09 0.09 0.12 0.19 0.24 0.23 0.22 0.17
0.00 0.00 0.00 0.00 0.00 0.00 0.00 0.00 0.00 0.00 0.00 0.01 0.01 0.01 0.02 0.04 0.04 0.04 0.05 0.09 0.12 0.14 0.14 0.15 0.16 0.18 0.24 0.22 0.18 0.16 0.11 0.11 0.14 0.18 0.21 0.21 0.24 0.27
0.00 0.00 0.00 0.00 0.00 0.00 0.00 0.00 0.00 0.00 0.00 0.01 0.01 0.01 0.02 0.04 0.04 0.04 0.06 0.10 0.16 0.20 0.20 0.18 0.19 0.22 0.23 0.26 0.29 0.28 0.24 0.19 0.17 0.17 0.17 0.17 0.22 0.27
0.00 0.00 0.00 0.00 0.00 0.00 0.00 0.00 0.00 0.00 0.00 0.01 0.01 0.01 0.02 0.04 0.05 0.06 0.08 0.11 0.15 0.18 0.21 0.23 0.24 0.27 0.34 0.40 0.39 0.34 0.33 0.30 0.29 0.29 0.26 0.18 0.14 0.15
0.00 0.00 0.00 0.00 0.00 0.00 0.00 0.00 0.00 0.00 0.00 0.01 0.01 0.02 0.03 0.05 0.06 0.08 0.09 0.11 0.14 0.16 0.18 0.23 0.29 0.32 0.37 0.39 0.37 0.36 0.33 0.26 0.25 0.26 0.29 0.26 0.17 0.12

GEFSNE_prec_meanprecacc_024.txt.gz
Total_Precipitation_Accumulation
0.01 0.01 0.00 0.00 0.00 0.00 0.01 0.01 0.02 0.02 0.01 0.01 0.01 0.01 0.02 0.04 0.05 0.07 0.06 0.05 0.07 0.05 0.06 0.09 0.12 0.13 0.15 0.19 0.22 0.26 0.33 0.44 0.50 0.49 0.43 0.33 0.28 0.27
0.01 0.00 0.00 0.00 0.00 0.00 0.00 0.01 0.01 0.02 0.01 0.00 0.00 0.00 0.02 0.03 0.04 0.07 0.07 0.07 0.08 0.09 0.08 0.10 0.12 0.13 0.13 0.14 0.15 0.17 0.20 0.26 0.36 0.46 0.51 0.48 0.39 0.33
0.01 0.01 0.00 0.00 0.00 0.00 0.01 0.01 0.02 0.03 0.02 0.00 0.00 0.00 0.01 0.02 0.03 0.05 0.06 0.05 0.04 0.07 0.09 0.11 0.14 0.16 0.14 0.13 0.13 0.14 0.15 0.17 0.22 0.32 0.46 0.54 0.53 0.44
0.03 0.03 0.02 0.01 0.00 0.00 0.01 0.01 0.02 0.02 0.03 0.02 0.00 0.01 0.01 0.02 0.03 0.04 0.03 0.03 0.02 0.02 0.06 0.10 0.14 0.17 0.18 0.17 0.14 0.13 0.14 0.16 0.18 0.20 0.28 0.39 0.49 0.52
0.06 0.05 0.04 0.03 0.01 0.01 0.01 0.01 0.01 0.02 0.02 0.03 0.02 0.02 0.01 0.02 0.03 0.03 0.04 0.05 0.04 0.03 0.05 0.09 0.14 0.17 0.20 0.21 0.20 0.15 0.13 0.14 0.16 0.18 0.20 0.25 0.34 0.43
0.08 0.07 0.06 0.04 0.02 0.01 0.01 0.01 0.01 0.02 0.02 0.03 0.03 0.03 0.02 0.02 0.03 0.04 0.05 0.06 0.08 0.08 0.08 0.08 0.11 0.15 0.16 0.17 0.19 0.21 0.19 0.17 0.17 0.19 0.20 0.20 0.21 0.25
0.12 0.09 0.07 0.06 0.05 0.04 0.02 0.01 0.01 0.01 0.01 0.02 0.02 0.02 0.01 0.02 0.02 0.02 0.03 0.03 0.06 0.10 0.12 0.10 0.09 0.10 0.11 0.14 0.16 0.18 0.23 0.25 0.24 0.22 0.23 0.23 0.21 0.20
0.13 0.10 0.07 0.07 0.07 0.09 0.08 0.05 0.03 0.02 0.02 0.01 0.02 0.02 0.01 0.02 0.02 0.03 0.04 0.04 0.03 0.02 0.04 0.05 0.09 0.11 0.09 0.10 0.14 0.17 0.18 0.21 0.26 0.29 0.29 0.27 0.27 0.24
0.06 0.04 0.03 0.03 0.03 0.03 0.03 0.02 0.01 0.01 0.01 0.02 0.03 0.04 0.04 0.03 0.04 0.05 0.06 0.06 0.05 0.03 0.02 0.01 0.02 0.05 0.06 0.08 0.12 0.15 0.18 0.20 0.22 0.23 0.28 0.31 0.31 0.32
0.01 0.01 0.00 0.00 0.01 0.01 0.00 0.00 0.00 0.00 0.00 0.01 0.02 0.04 0.04 0.04 0.05 0.07 0.07 0.07 0.05 0.03 0.02 0.02 0.01 0.01 0.01 0.04 0.08 0.11 0.13 0.15 0.18 0.20 0.21 0.24 0.28 0.33
0.00 0.00 0.00 0.00 0.01 0.01 0.01 0.01 0.00 0.00 0.00 0.00 0.01 0.02 0.02 0.03 0.03 0.05 0.05 0.06 0.04 0.02 0.01 0.02 0.01 0.01 0.01 0.01 0.03 0.07 0.11 0.13 0.15 0.17 0.20 0.22 0.23 0.28
0.00 0.00 0.00 0.00 0.01 0.01 0.01 0.01 0.00 0.00 0.00 0.00 0.00 0.00 0.00 0.00 0.01 0.02 0.03 0.05 0.04 0.03 0.01 0.02 0.02 0.02 0.02 0.01 0.02 0.03 0.07 0.13 0.17 0.20 0.23 0.27 0.30 0.31
0.00 0.00 0.00 0.01 0.01 0.01 0.01 0.00 0.01 0.01 0.01 0.00 0.00 0.01 0.01 0.00 0.00 0.01 0.01 0.03 0.04 0.04 0.02 0.03 0.04 0.03 0.03 0.02 0.01 0.01 0.02 0.05 0.12 0.21 0.27 0.33 0.38 0.43
0.00 0.00 0.00 0.00 0.00 0.00 0.00 0.00 0.00 0.00 0.00 0.00 0.01 0.01 0.01 0.01 0.01 0.01 0.02 0.03 0.03 0.03 0.03 0.05 0.06 0.06 0.05 0.04 0.02 0.01 0.01 0.03 0.07 0.14 0.23 0.35 0.42 0.43
0.01 0.01 0.01 0.00 0.00 0.00 0.00 0.00 0.00 0.00 0.00 0.00 0.00 0.01 0.01 0.01 0.01 0.02 0.02 0.03 0.04 0.04 0.04 0.05 0.04 0.05 0.07 0.06 0.04 0.02 0.02 0.02 0.04 0.09 0.16 0.26 0.36 0.42
0.02 0.02 0.02 0.00 0.00 0.00 0.00 0.00 0.00 0.00 0.00 0.01 0.01 0.00 0.00 0.01 0.01 0.01 0.02 0.04 0.05 0.05 0.04 0.04 0.04 0.05 0.06 0.06 0.06 0.04 0.03 0.03 0.04 0.08 0.12 0.18 0.27 0.33
0.03 0.01 0.01 0.00 0.00 0.00 0.00 0.00 0.00 0.00 0.00 0.00 0.01 0.01 0.01 0.01 0.00 0.01 0.02 0.04 0.07 0.08 0.06 0.06 0.07 0.08 0.08 0.08 0.08 0.07 0.06 0.06 0.06 0.09 0.13 0.18 0.24 0.29
0.03 0.01 0.00 0.00 0.00 0.00 0.00 0.00 0.00 0.00 0.00 0.01 0.01 0.01 0.01 0.01 0.01 0.01 0.02 0.05 0.07 0.08 0.08 0.09 0.12 0.16 0.21 0.21 0.16 0.10 0.08 0.10 0.12 0.15 0.18 0.21 0.23 0.21
0.02 0.01 0.00 0.00 0.00 0.00 0.00 0.00 0.00 0.00 0.00 0.01 0.01 0.01 0.02 0.02 0.02 0.02 0.03 0.06 0.09 0.10 0.10 0.10 0.13 0.21 0.27 0.28 0.24 0.14 0.09 0.09 0.12 0.19 0.24 0.23 0.22 0.17
0.01 0.01 0.00 0.00 0.00 0.00 0.00 0.00 0.00 0.00 0.00 0.01 0.01 0.01 0.02 0.04 0.04 0.04 0.05 0.09 0.12 0.14 0.14 0.15 0.16 0.18 0.25 0.23 0.19 0.16 0.11 0.11 0.14 0.18 0.21 0.21 0.24 0.27
0.00 0.00 0.00 0.00 0.00 0.00 0.00 0.00 0.00 0.00 0.00 0.01 0.01 0.01 0.02 0.04 0.04 0.04 0.06 0.10 0.16 0.20 0.20 0.18 0.19 0.22 0.24 0.27 0.30 0.28 0.24 0.19 0.17 0.17 0.17 0.18 0.23 0.28
0.00 0.00 0.00 0.00 0.00 0.00 0.00 0.00 0.00 0.00 0.00 0.01 0.01 0.01 0.02 0.04 0.05 0.06 0.08 0.11 0.15 0.19 0.21 0.23 0.24 0.27 0.34 0.41 0.40 0.34 0.33 0.30 0.29 0.29 0.26 0.18 0.15 0.16
0.00 0.00 0.00 0.00 0.00 0.00 0.00 0.00 0.00 0.00 0.00 0.01 0.01 0.02 0.03 0.05 0.06 0.08 0.09 0.11 0.14 0.16 0.18 0.23 0.29 0.32 0.38 0.39 0.37 0.36 0.33 0.26 0.25 0.26 0.29 0.26 0.17 0.12

GEFSNE_prec_meanprecacc_030.txt.gz
Total_Precipitation_Accumulation
0.11 0.09 0.08 0.06 0.05 0.03 0.02 0.02 0.02 0.02 0.01 0.01 0.01 0.02 0.04 0.06 0.09 0.10 0.08 0.08 0.09 0.07 0.08 0.12 0.14 0.15 0.16 0.19 0.22 0.26 0.33 0.44 0.50 0.49 0.43 0.33 0.28 0.27
0.17 0.15 0.13 0.12 0.09 0.06 0.04 0.02 0.02 0.02 0.02 0.00 0.00 0.01 0.02 0.04 0.06 0.08 0.07 0.07 0.08 0.09 0.08 0.11 0.14 0.14 0.13 0.14 0.15 0.17 0.20 0.26 0.36 0.46 0.51 0.48 0.39 0.33
0.22 0.21 0.20 0.17 0.13 0.08 0.05 0.04 0.03 0.04 0.03 0.00 0.00 0.01 0.02 0.02 0.03 0.06 0.06 0.05 0.04 0.07 0.09 0.11 0.14 0.16 0.15 0.13 0.13 0.14 0.15 0.17 0.22 0.32 0.46 0.54 0.53 0.44
0.24 0.24 0.23 0.20 0.16 0.11 0.07 0.04 0.04 0.04 0.04 0.02 0.01 0.01 0.01 0.02 0.03 0.04 0.03 0.03 0.02 0.02 0.06 0.10 0.14 0.17 0.18 0.17 0.14 0.13 0.14 0.16 0.18 0.20 0.28 0.39 0.49 0.52
0.19 0.21 0.23 0.24 0.21 0.15 0.09 0.05 0.04 0.03 0.03 0.03 0.02 0.02 0.02 0.02 0.03 0.03 0.04 0.05 0.04 0.03 0.05 0.09 0.14 0.17 0.20 0.21 0.20 0.15 0.13 0.14 0.16 0.18 0.20 0.25 0.34 0.43
0.20 0.20 0.20 0.20 0.20 0.18 0.14 0.08 0.05 0.04 0.04 0.04 0.03 0.03 0.02 0.02 0.03 0.04 0.05 0.06 0.08 0.08 0.08 0.08 0.11 0.15 0.16 0.17 0.19 0.21 0.19 0.17 0.17 0.19 0.20 0.20 0.21 0.25
0.25 0.24 0.22 0.22 0.22 0.19 0.15 0.11 0.06 0.04 0.03 0.04 0.04 0.03 0.02 0.02 0.03 0.03 0.05 0.04 0.07 0.11 0.12 0.10 0.09 0.10 0.11 0.14 0.16 0.18 0.23 0.25 0.24 0.22 0.23 0.23 0.21 0.20
0.24 0.23 0.21 0.21 0.22 0.24 0.21 0.13 0.09 0.06 0.05 0.05 0.04 0.04 0.03 0.03 0.04 0.06 0.07 0.07 0.05 0.04 0.05 0.07 0.10 0.11 0.09 0.10 0.14 0.17 0.18 0.21 0.26 0.29 0.29 0.27 0.27 0.24
0.13 0.13 0.12 0.12 0.12 0.11 0.10 0.07 0.06 0.05 0.05 0.06 0.09 0.09 0.06 0.04 0.06 0.08 0.09 0.10 0.09 0.06 0.05 0.05 0.05 0.06 0.06 0.08 0.12 0.15 0.18 0.20 0.22 0.23 0.28 0.31 0.31 0.32
0.05 0.05 0.05 0.05 0.05 0.04 0.03 0.03 0.03 0.03 0.04 0.06 0.09 0.12 0.12 0.10 0.09 0.11 0.13 0.14 0.12 0.09 0.07 0.07 0.05 0.04 0.03 0.04 0.08 0.11 0.13 0.15 0.18 0.20 0.21 0.24 0.28 0.33
0.03 0.03 0.02 0.02 0.03 0.03 0.03 0.03 0.03 0.03 0.04 0.06 0.09 0.10 0.12 0.12 0.12 0.12 0.14 0.17 0.16 0.13 0.09 0.09 0.06 0.04 0.02 0.02 0.03 0.07 0.11 0.13 0.15 0.17 0.20 0.22 0.23 0.28
0.04 0.03 0.03 0.02 0.02 0.02 0.02 0.02 0.02 0.02 0.02 0.03 0.04 0.04 0.04 0.04 0.05 0.08 0.11 0.13 0.13 0.12 0.08 0.07 0.07 0.06 0.05 0.02 0.02 0.03 0.07 0.13 0.17 0.20 0.23 0.27 0.30 0.31
0.03 0.03 0.02 0.02 0.01 0.01 0.01 0.01 0.01 0.02 0.02 0.01 0.02 0.02 0.02 0.02 0.02 0.03 0.05 0.07 0.07 0.07 0.05 0.06 0.06 0.05 0.04 0.03 0.01 0.01 0.02 0.05 0.12 0.21 0.27 0.33 0.38 0.43
0.02 0.02 0.02 0.02 0.01 0.01 0.01 0.01 0.01 0.00 0.00 0.01 0.01 0.01 0.02 0.02 0.02 0.02 0.02 0.03 0.04 0.04 0.04 0.05 0.07 0.07 0.06 0.04 0.02 0.01 0.01 0.03 0.07 0.14 0.23 0.35 0.42 0.43
0.03 0.05 0.04 0.02 0.01 0.01 0.00 0.00 0.00 0.00 0.00 0.01 0.01 0.01 0.01 0.01 0.01 0.02 0.03 0.03 0.04 0.04 0.04 0.05 0.04 0.05 0.07 0.06 0.04 0.02 0.02 0.02 0.04 0.09 0.16 0.26 0.36 0.42
0.03 0.06 0.05 0.02 0.00 0.00 0.00 0.00 0.00 0.00 0.00 0.01 0.01 0.00 0.00 0.01 0.01 0.01 0.02 0.04 0.05 0.05 0.04 0.04 0.04 0.05 0.06 0.06 0.06 0.04 0.03 0.03 0.04 0.08 0.12 0.18 0.27 0.33
0.05 0.03 0.02 0.01 0.00 0.00 0.00 0.00 0.00 0.00 0.00 0.00 0.01 0.01 0.01 0.01 0.00 0.01 0.02 0.04 0.07 0.08 0.06 0.06 0.07 0.08 0.08 0.08 0.08 0.07 0.06 0.06 0.06 0.09 0.13 0.18 0.24 0.29
0.05 0.03 0.02 0.01 0.01 0.00 0.00 0.00 0.00 0.00 0.00 0.01 0.01 0.01 0.01 0.01 0.01 0.01 0.02 0.05 0.07 0.08 0.08 0.09 0.12 0.16 0.21 0.21 0.16 0.10 0.08 0.10 0.12 0.15 0.18 0.21 0.23 0.21
0.02 0.02 0.01 0.01 0.00 0.00 0.00 0.00 0.00 0.00 0.00 0.01 0.01 0.01 0.02 0.02 0.02 0.02 0.03 0.06 0.09 0.10 0.10 0.10 0.13 0.21 0.27 0.28 0.24 0.14 0.09 0.09 0.12 0.19 0.24 0.23 0.22 0.17
0.01 0.01 0.00 0.00 0.00 0.00 0.00 0.00 0.00 0.00 0.00 0.01 0.01 0.01 0.02 0.04 0.04 0.04 0.05 0.09 0.12 0.14 0.14 0.15 0.16 0.18 0.25 0.24 0.19 0.16 0.11 0.11 0.14 0.18 0.21 0.21 0.24 0.27
0.00 0.00 0.00 0.00 0.00 0.00 0.00 0.00 0.00 0.00 0.00 0.01 0.01 0.01 0.02 0.04 0.04 0.04 0.06 0.10 0.16 0.20 0.20 0.18 0.19 0.22 0.24 0.27 0.30 0.28 0.24 0.19 0.17 0.17 0.17 0.18 0.23 0.28
0.00 0.00 0.00 0.00 0.00 0.00 0.00 0.00 0.00 0.00 0.00 0.01 0.01 0.01 0.02 0.04 0.05 0.06 0.08 0.11 0.15 0.19 0.21 0.23 0.24 0.27 0.34 0.41 0.40 0.34 0.33 0.30 0.29 0.29 0.26 0.18 0.16 0.17
0.00 0.00 0.00 0.00 0.00 0.00 0.00 0.00 0.00 0.00 0.00 0.01 0.01 0.02 0.03 0.05 0.06 0.08 0.09 0.11 0.14 0.16 0.18 0.23 0.29 0.32 0.38 0.39 0.38 0.36 0.33 0.26 0.25 0.26 0.29 0.26 0.17 0.12

GEFSNE_prec_meanprecacc_036.txt.gz
Total_Precipitation_Accumulation
0.13 0.12 0.11 0.09 0.08 0.06 0.05 0.05 0.06 0.05 0.03 0.02 0.01 0.02 0.05 0.09 0.13 0.15 0.13 0.13 0.14 0.13 0.16 0.24 0.31 0.35 0.40 0.43 0.44 0.43 0.43 0.50 0.52 0.51 0.45 0.34 0.28 0.28
0.19 0.18 0.17 0.16 0.14 0.12 0.09 0.08 0.07 0.07 0.04 0.01 0.01 0.02 0.05 0.08 0.13 0.15 0.15 0.14 0.13 0.14 0.14 0.18 0.24 0.28 0.32 0.35 0.35 0.34 0.32 0.33 0.39 0.48 0.52 0.49 0.39 0.33
0.24 0.24 0.24 0.23 0.22 0.20 0.17 0.14 0.11 0.11 0.09 0.03 0.02 0.03 0.06 0.09 0.12 0.13 0.14 0.12 0.09 0.11 0.13 0.16 0.20 0.24 0.26 0.27 0.29 0.29 0.28 0.27 0.28 0.35 0.47 0.55 0.53 0.44
0.26 0.27 0.28 0.28 0.28 0.27 0.25 0.21 0.17 0.14 0.13 0.08 0.03 0.03 0.06 0.09 0.12 0.12 0.10 0.09 0.07 0.07 0.10 0.14 0.18 0.22 0.24 0.25 0.23 0.23 0.24 0.24 0.23 0.24 0.29 0.40 0.49 0.52
0.21 0.24 0.28 0.31 0.32 0.31 0.30 0.27 0.25 0.19 0.15 0.12 0.07 0.05 0.06 0.09 0.12 0.11 0.10 0.10 0.08 0.07 0.08 0.12 0.16 0.20 0.23 0.25 0.24 0.19 0.17 0.17 0.18 0.20 0.22 0.26 0.34 0.43
0.23 0.24 0.26 0.28 0.30 0.32 0.33 0.31 0.29 0.27 0.23 0.17 0.12 0.09 0.08 0.10 0.13 0.14 0.13 0.13 0.14 0.13 0.11 0.10 0.13 0.16 0.18 0.19 0.21 0.23 0.20 0.18 0.18 0.20 0.21 0.20 0.21 0.25
0.27 0.27 0.28 0.30 0.34 0.33 0.33 0.32 0.31 0.29 0.26 0.23 0.18 0.13 0.09 0.11 0.15 0.15 0.14 0.12 0.13 0.16 0.16 0.12 0.11 0.11 0.13 0.15 0.17 0.19 0.24 0.26 0.24 0.22 0.23 0.23 0.22 0.20
0.27 0.26 0.25 0.28 0.31 0.36 0.36 0.31 0.31 0.31 0.30 0.27 0.24 0.19 0.14 0.13 0.15 0.19 0.19 0.16 0.11 0.07 0.07 0.08 0.11 0.12 0.09 0.11 0.15 0.18 0.19 0.22 0.26 0.29 0.29 0.27 0.27 0.24
0.15 0.15 0.15 0.17 0.18 0.20 0.20 0.19 0.21 0.26 0.31 0.31 0.32 0.28 0.21 0.16 0.16 0.21 0.24 0.21 0.14 0.09 0.07 0.06 0.06 0.07 0.06 0.08 0.12 0.15 0.18 0.21 0.22 0.23 0.28 0.31 0.31 0.32
0.08 0.08 0.08 0.08 0.09 0.10 0.11 0.12 0.15 0.19 0.26 0.31 0.34 0.34 0.30 0.23 0.19 0.20 0.26 0.27 0.21 0.14 0.12 0.12 0.09 0.06 0.04 0.05 0.08 0.11 0.13 0.15 0.18 0.20 0.22 0.24 0.28 0.33
0.06 0.06 0.05 0.05 0.06 0.05 0.07 0.11 0.12 0.14 0.18 0.25 0.29 0.28 0.27 0.26 0.24 0.22 0.23 0.28 0.28 0.24 0.20 0.18 0.14 0.11 0.08 0.04 0.04 0.08 0.11 0.13 0.15 0.17 0.20 0.22 0.23 0.28
0.06 0.06 0.09 0.08 0.05 0.03 0.03 0.06 0.08 0.10 0.11 0.12 0.13 0.13 0.11 0.10 0.13 0.19 0.23 0.24 0.25 0.26 0.22 0.21 0.21 0.18 0.16 0.10 0.05 0.03 0.07 0.13 0.17 0.20 0.23 0.27 0.30 0.31
0.04 0.05 0.08 0.09 0.05 0.04 0.03 0.03 0.05 0.05 0.05 0.06 0.07 0.08 0.07 0.07 0.09 0.12 0.16 0.19 0.19 0.21 0.19 0.17 0.20 0.19 0.16 0.12 0.06 0.03 0.03 0.05 0.12 0.21 0.27 0.33 0.38 0.43
0.03 0.06 0.09 0.09 0.06 0.04 0.02 0.02 0.02 0.01 0.01 0.02 0.03 0.04 0.05 0.05 0.06 0.08 0.10 0.11 0.13 0.15 0.15 0.13 0.14 0.14 0.13 0.11 0.06 0.03 0.02 0.03 0.07 0.15 0.23 0.35 0.42 0.43
0.09 0.18 0.13 0.06 0.03 0.03 0.01 0.00 0.00 0.00 0.00 0.01 0.01 0.02 0.02 0.03 0.03 0.04 0.05 0.06 0.07 0.06 0.08 0.08 0.08 0.09 0.09 0.09 0.06 0.03 0.02 0.03 0.04 0.09 0.16 0.26 0.36 0.42
0.07 0.15 0.12 0.04 0.01 0.00 0.00 0.00 0.00 0.00 0.00 0.01 0.01 0.01 0.00 0.01 0.01 0.01 0.03 0.04 0.06 0.06 0.05 0.05 0.06 0.06 0.08 0.07 0.06 0.05 0.03 0.03 0.04 0.08 0.12 0.18 0.27 0.33
0.07 0.06 0.04 0.02 0.01 0.00 0.00 0.00 0.00 0.00 0.00 0.00 0.01 0.01 0.01 0.01 0.00 0.01 0.02 0.04 0.07 0.08 0.07 0.06 0.07 0.08 0.09 0.09 0.09 0.07 0.06 0.06 0.06 0.09 0.13 0.18 0.24 0.29
0.06 0.05 0.04 0.03 0.01 0.01 0.00 0.00 0.00 0.00 0.00 0.01 0.01 0.01 0.01 0.01 0.01 0.01 0.02 0.05 0.07 0.08 0.08 0.09 0.12 0.16 0.21 0.21 0.16 0.10 0.08 0.10 0.12 0.15 0.18 0.21 0.23 0.21
0.02 0.02 0.02 0.01 0.01 0.00 0.00 0.00 0.00 0.00 0.00 0.01 0.01 0.01 0.02 0.02 0.02 0.02 0.03 0.06 0.09 0.10 0.10 0.10 0.13 0.21 0.27 0.28 0.24 0.14 0.09 0.09 0.12 0.19 0.24 0.23 0.22 0.17
0.01 0.01 0.00 0.00 0.00 0.00 0.00 0.00 0.00 0.00 0.00 0.01 0.01 0.01 0.02 0.04 0.04 0.04 0.05 0.09 0.12 0.14 0.14 0.15 0.16 0.18 0.25 0.24 0.19 0.16 0.11 0.11 0.14 0.18 0.21 0.21 0.24 0.27
0.00 0.00 0.00 0.00 0.00 0.00 0.00 0.00 0.00 0.00 0.00 0.01 0.01 0.01 0.02 0.04 0.04 0.04 0.06 0.10 0.16 0.20 0.20 0.18 0.19 0.22 0.24 0.27 0.30 0.28 0.24 0.19 0.17 0.17 0.17 0.18 0.23 0.28
0.00 0.00 0.00 0.00 0.00 0.00 0.00 0.00 0.00 0.00 0.00 0.01 0.01 0.01 0.02 0.04 0.05 0.06 0.08 0.11 0.15 0.19 0.21 0.23 0.24 0.27 0.34 0.41 0.40 0.34 0.33 0.30 0.29 0.29 0.26 0.18 0.16 0.17
0.00 0.00 0.00 0.00 0.00 0.00 0.00 0.00 0.00 0.00 0.00 0.01 0.01 0.02 0.03 0.05 0.06 0.08 0.09 0.11 0.14 0.16 0.18 0.23 0.29 0.32 0.38 0.39 0.38 0.36 0.33 0.26 0.25 0.26 0.29 0.26 0.17 0.12

GEFSNE_prec_meanprecacc_042.txt.gz
Total_Precipitation_Accumulation
0.14 0.13 0.13 0.12 0.11 0.10 0.10 0.11 0.12 0.09 0.04 0.02 0.02 0.03 0.05 0.09 0.14 0.16 0.14 0.13 0.15 0.14 0.16 0.26 0.36 0.44 0.51 0.59 0.65 0.68 0.66 0.67 0.63 0.58 0.52 0.42 0.35 0.33
0.20 0.19 0.18 0.17 0.16 0.15 0.13 0.12 0.12 0.12 0.08 0.02 0.02 0.02 0.06 0.09 0.14 0.17 0.16 0.15 0.14 0.15 0.15 0.19 0.27 0.36 0.45 0.54 0.56 0.57 0.57 0.56 0.56 0.60 0.64 0.61 0.48 0.40
0.25 0.25 0.25 0.25 0.24 0.22 0.20 0.18 0.16 0.16 0.13 0.05 0.03 0.04 0.07 0.10 0.13 0.15 0.16 0.14 0.10 0.12 0.15 0.17 0.23 0.30 0.37 0.46 0.52 0.55 0.57 0.54 0.50 0.55 0.66 0.70 0.62 0.49
0.28 0.28 0.29 0.29 0.29 0.28 0.27 0.25 0.22 0.19 0.17 0.12 0.06 0.05 0.08 0.12 0.15 0.16 0.14 0.13 0.10 0.09 0.13 0.17 0.22 0.27 0.32 0.38 0.42 0.48 0.55 0.59 0.56 0.50 0.50 0.55 0.58 0.56
0.23 0.26 0.29 0.33 0.34 0.33 0.32 0.30 0.28 0.23 0.19 0.16 0.10 0.09 0.09 0.13 0.16 0.18 0.17 0.15 0.13 0.12 0.12 0.17 0.21 0.26 0.30 0.34 0.37 0.38 0.40 0.46 0.55 0.58 0.52 0.46 0.45 0.49
0.24 0.25 0.27 0.30 0.33 0.35 0.37 0.35 0.32 0.30 0.26 0.21 0.16 0.13 0.12 0.15 0.20 0.22 0.22 0.20 0.19 0.17 0.15 0.15 0.19 0.22 0.24 0.25 0.28 0.33 0.36 0.41 0.49 0.57 0.56 0.46 0.37 0.35
0.28 0.28 0.29 0.33 0.37 0.39 0.40 0.39 0.35 0.33 0.31 0.29 0.24 0.19 0.18 0.20 0.24 0.26 0.27 0.23 0.22 0.22 0.21 0.16 0.15 0.15 0.18 0.22 0.26 0.29 0.35 0.40 0.42 0.44 0.47 0.45 0.37 0.30
0.28 0.27 0.26 0.29 0.34 0.39 0.44 0.39 0.39 0.38 0.37 0.35 0.34 0.31 0.27 0.26 0.29 0.36 0.38 0.33 0.25 0.18 0.13 0.14 0.17 0.18 0.15 0.16 0.23 0.27 0.29 0.32 0.36 0.40 0.40 0.39 0.38 0.33
0.17 0.16 0.16 0.19 0.21 0.22 0.24 0.23 0.26 0.33 0.41 0.44 0.47 0.47 0.41 0.36 0.37 0.43 0.47 0.42 0.32 0.24 0.15 0.16 0.15 0.17 0.17 0.19 0.23 0.24 0.27 0.29 0.29 0.30 0.34 0.36 0.36 0.36
0.09 0.09 0.10 0.12 0.13 0.13 0.13 0.16 0.19 0.24 0.35 0.45 0.53 0.56 0.54 0.49 0.46 0.51 0.59 0.59 0.49 0.39 0.26 0.23 0.20 0.17 0.16 0.19 0.22 0.21 0.20 0.22 0.24 0.25 0.25 0.27 0.31 0.35
0.08 0.09 0.10 0.10 0.11 0.08 0.09 0.15 0.17 0.19 0.25 0.36 0.45 0.47 0.49 0.54 0.57 0.57 0.60 0.66 0.69 0.63 0.48 0.35 0.29 0.24 0.20 0.17 0.16 0.18 0.20 0.20 0.20 0.22 0.23 0.24 0.25 0.29
0.08 0.12 0.21 0.19 0.13 0.06 0.05 0.09 0.12 0.16 0.16 0.17 0.21 0.25 0.29 0.33 0.44 0.58 0.64 0.62 0.65 0.69 0.61 0.48 0.40 0.32 0.29 0.21 0.13 0.10 0.13 0.20 0.23 0.24 0.26 0.29 0.31 0.32
0.08 0.13 0.26 0.22 0.11 0.06 0.04 0.06 0.09 0.09 0.10 0.11 0.12 0.16 0.20 0.27 0.36 0.47 0.56 0.57 0.54 0.57 0.53 0.47 0.43 0.34 0.27 0.22 0.14 0.07 0.06 0.08 0.15 0.23 0.29 0.34 0.38 0.43
0.11 0.16 0.23 0.18 0.10 0.05 0.03 0.03 0.02 0.02 0.03 0.05 0.06 0.08 0.12 0.20 0.29 0.37 0.44 0.48 0.49 0.48 0.43 0.37 0.35 0.29 0.23 0.19 0.14 0.08 0.05 0.05 0.08 0.15 0.23 0.35 0.42 0.43
0.19 0.31 0.22 0.11 0.05 0.03 0.01 0.00 0.00 0.00 0.01 0.02 0.03 0.04 0.06 0.10 0.15 0.21 0.27 0.33 0.34 0.33 0.31 0.29 0.27 0.24 0.21 0.17 0.12 0.07 0.06 0.05 0.06 0.10 0.17 0.26 0.36 0.42
0.09 0.18 0.14 0.05 0.01 0.00 0.00 0.00 0.00 0.00 0.01 0.01 0.01 0.01 0.01 0.03 0.06 0.10 0.14 0.19 0.23 0.24 0.22 0.22 0.22 0.21 0.20 0.17 0.13 0.10 0.07 0.05 0.06 0.09 0.12 0.19 0.27 0.33
0.08 0.07 0.05 0.02 0.01 0.00 0.00 0.00 0.00 0.00 0.00 0.00 0.01 0.01 0.01 0.01 0.02 0.04 0.07 0.11 0.16 0.18 0.18 0.18 0.18 0.19 0.18 0.17 0.17 0.13 0.10 0.08 0.07 0.10 0.14 0.18 0.24 0.29
0.07 0.05 0.04 0.03 0.01 0.01 0.00 0.00 0.00 0.00 0.00 0.01 0.01 0.01 0.01 0.01 0.01 0.02 0.04 0.07 0.11 0.13 0.13 0.14 0.17 0.22 0.26 0.26 0.19 0.12 0.10 0.11 0.13 0.15 0.18 0.22 0.23 0.21
0.03 0.02 0.02 0.01 0.01 0.00 0.00 0.00 0.00 0.00 0.00 0.01 0.01 0.01 0.02 0.02 0.02 0.02 0.03 0.06 0.10 0.11 0.11 0.11 0.15 0.23 0.29 0.30 0.25 0.15 0.10 0.09 0.12 0.19 0.24 0.23 0.22 0.17
0.01 0.01 0.00 0.00 0.00 0.00 0.00 0.00 0.00 0.00 0.00 0.01 0.01 0.01 0.02 0.04 0.04 0.04 0.05 0.09 0.13 0.14 0.15 0.15 0.17 0.19 0.25 0.24 0.20 0.16 0.11 0.11 0.14 0.18 0.21 0.21 0.24 0.27
0.00 0.00 0.00 0.00 0.00 0.00 0.00 0.00 0.00 0.00 0.00 0.01 0.01 0.01 0.02 0.04 0.04 0.04 0.06 0.10 0.16 0.20 0.20 0.18 0.19 0.22 0.24 0.27 0.30 0.28 0.24 0.19 0.17 0.17 0.17 0.18 0.23 0.28
0.00 0.00 0.00 0.00 0.00 0.00 0.00 0.00 0.00 0.00 0.00 0.01 0.01 0.01 0.02 0.04 0.05 0.06 0.08 0.11 0.15 0.19 0.21 0.23 0.24 0.27 0.34 0.41 0.40 0.34 0.33 0.30 0.29 0.29 0.26 0.18 0.16 0.17
0.00 0.00 0.00 0.00 0.00 0.00 0.00 0.00 0.00 0.00 0.01 0.01 0.01 0.02 0.03 0.05 0.06 0.08 0.09 0.11 0.14 0.16 0.18 0.23 0.29 0.32 0.38 0.39 0.38 0.36 0.33 0.26 0.25 0.26 0.29 0.26 0.17 0.12

GEFSNE_prec_meanprecacc_048.txt.gz
Total_Precipitation_Accumulation
0.14 0.14 0.15 0.13 0.12 0.12 0.13 0.17 0.20 0.15 0.07 0.07 0.11 0.12 0.12 0.15 0.19 0.19 0.16 0.16 0.17 0.15 0.17 0.27 0.37 0.47 0.56 0.67 0.83 0.99 1.06 1.08 0.97 0.82 0.66 0.49 0.40 0.37
0.21 0.21 0.20 0.19 0.18 0.16 0.15 0.15 0.17 0.19 0.12 0.05 0.09 0.14 0.17 0.19 0.21 0.22 0.20 0.18 0.16 0.16 0.15 0.19 0.28 0.37 0.48 0.59 0.64 0.72 0.82 0.88 0.92 0.94 0.91 0.79 0.60 0.49
0.26 0.27 0.27 0.26 0.25 0.23 0.21 0.19 0.18 0.21 0.17 0.06 0.05 0.10 0.18 0.23 0.24 0.22 0.21 0.17 0.12 0.13 0.16 0.18 0.24 0.31 0.38 0.48 0.57 0.64 0.71 0.74 0.74 0.84 0.98 0.97 0.83 0.65
0.30 0.32 0.32 0.31 0.30 0.30 0.29 0.27 0.24 0.22 0.21 0.14 0.07 0.08 0.14 0.21 0.25 0.25 0.20 0.16 0.11 0.11 0.14 0.18 0.22 0.28 0.33 0.39 0.45 0.53 0.64 0.74 0.73 0.67 0.73 0.84 0.86 0.80
0.26 0.29 0.31 0.35 0.36 0.35 0.34 0.33 0.30 0.24 0.21 0.18 0.12 0.10 0.13 0.18 0.23 0.25 0.23 0.20 0.15 0.13 0.13 0.17 0.22 0.26 0.30 0.35 0.39 0.41 0.45 0.52 0.65 0.76 0.79 0.78 0.76 0.74
0.25 0.27 0.29 0.33 0.36 0.39 0.42 0.40 0.35 0.31 0.28 0.22 0.17 0.15 0.15 0.18 0.24 0.27 0.27 0.25 0.22 0.18 0.16 0.16 0.19 0.23 0.24 0.26 0.29 0.34 0.40 0.50 0.61 0.74 0.81 0.78 0.69 0.62
0.29 0.30 0.31 0.37 0.43 0.45 0.50 0.49 0.42 0.36 0.33 0.30 0.26 0.21 0.20 0.23 0.28 0.30 0.32 0.28 0.25 0.24 0.22 0.17 0.16 0.16 0.18 0.23 0.28 0.30 0.38 0.45 0.49 0.56 0.67 0.75 0.72 0.64
0.31 0.28 0.28 0.31 0.36 0.43 0.51 0.47 0.45 0.43 0.41 0.38 0.37 0.35 0.30 0.29 0.33 0.39 0.42 0.37 0.30 0.22 0.15 0.16 0.19 0.20 0.16 0.17 0.26 0.30 0.32 0.36 0.42 0.48 0.52 0.58 0.65 0.66
0.21 0.18 0.18 0.21 0.23 0.22 0.26 0.26 0.28 0.36 0.45 0.48 0.52 0.52 0.45 0.39 0.40 0.46 0.51 0.47 0.37 0.30 0.20 0.21 0.21 0.21 0.21 0.24 0.30 0.30 0.32 0.35 0.36 0.37 0.42 0.48 0.53 0.59
0.13 0.13 0.16 0.18 0.18 0.16 0.15 0.17 0.20 0.26 0.39 0.48 0.57 0.60 0.58 0.52 0.49 0.55 0.64 0.66 0.56 0.47 0.34 0.31 0.31 0.29 0.26 0.28 0.33 0.33 0.30 0.30 0.32 0.34 0.34 0.36 0.41 0.49
0.14 0.19 0.23 0.21 0.19 0.11 0.10 0.15 0.18 0.21 0.27 0.38 0.48 0.50 0.51 0.57 0.60 0.61 0.66 0.73 0.80 0.77 0.62 0.49 0.42 0.38 0.35 0.33 0.35 0.38 0.38 0.34 0.32 0.33 0.34 0.34 0.33 0.37
0.12 0.20 0.37 0.32 0.19 0.07 0.05 0.09 0.13 0.17 0.17 0.18 0.22 0.26 0.30 0.36 0.47 0.63 0.71 0.71 0.79 0.88 0.80 0.64 0.54 0.43 0.46 0.42 0.32 0.28 0.33 0.40 0.40 0.38 0.39 0.39 0.38 0.36
0.12 0.23 0.40 0.31 0.16 0.08 0.04 0.06 0.11 0.10 0.10 0.11 0.13 0.17 0.21 0.29 0.40 0.53 0.65 0.68 0.69 0.76 0.73 0.65 0.60 0.46 0.39 0.39 0.33 0.25 0.21 0.25 0.31 0.38 0.42 0.46 0.48 0.49
0.16 0.21 0.29 0.21 0.12 0.06 0.03 0.03 0.03 0.02 0.03 0.05 0.06 0.09 0.14 0.23 0.34 0.44 0.54 0.61 0.65 0.68 0.62 0.52 0.50 0.41 0.30 0.25 0.26 0.25 0.21 0.21 0.22 0.28 0.34 0.46 0.51 0.52
0.21 0.33 0.23 0.11 0.06 0.03 0.01 0.00 0.00 0.00 0.01 0.02 0.03 0.05 0.09 0.14 0.21 0.29 0.38 0.46 0.50 0.54 0.53 0.46 0.41 0.37 0.30 0.23 0.17 0.17 0.18 0.20 0.20 0.23 0.28 0.36 0.43 0.48
0.09 0.18 0.15 0.05 0.01 0.00 0.00 0.00 0.00 0.00 0.01 0.01 0.02 0.03 0.03 0.06 0.10 0.18 0.26 0.34 0.41 0.47 0.49 0.48 0.45 0.41 0.36 0.28 0.20 0.17 0.15 0.16 0.17 0.20 0.23 0.27 0.33 0.38
0.08 0.07 0.05 0.02 0.01 0.00 0.00 0.00 0.00 0.00 0.00 0.01 0.01 0.02 0.03 0.04 0.06 0.11 0.19 0.26 0.34 0.41 0.46 0.50 0.51 0.48 0.44 0.38 0.33 0.27 0.20 0.18 0.16 0.18 0.21 0.24 0.29 0.32
0.07 0.05 0.04 0.03 0.01 0.01 0.00 0.00 0.00 0.00 0.00 0.01 0.01 0.02 0.03 0.04 0.05 0.07 0.13 0.20 0.26 0.31 0.34 0.40 0.46 0.50 0.54 0.55 0.43 0.30 0.22 0.21 0.21 0.22 0.24 0.26 0.26 0.24
0.03 0.02 0.02 0.01 0.01 0.00 0.00 0.00 0.00 0.00 0.00 0.01 0.01 0.01 0.03 0.04 0.05 0.06 0.09 0.16 0.23 0.26 0.28 0.29 0.35 0.44 0.48 0.50 0.47 0.31 0.21 0.17 0.18 0.23 0.27 0.26 0.24 0.18
0.01 0.01 0.00 0.00 0.00 0.00 0.00 0.00 0.00 0.00 0.00 0.01 0.01 0.01 0.02 0.04 0.06 0.06 0.09 0.15 0.22 0.26 0.27 0.29 0.32 0.35 0.39 0.33 0.28 0.25 0.19 0.17 0.17 0.20 0.23 0.23 0.25 0.27
0.00 0.00 0.00 0.00 0.00 0.00 0.00 0.00 0.00 0.00 0.00 0.01 0.01 0.01 0.02 0.04 0.05 0.05 0.08 0.13 0.21 0.27 0.28 0.27 0.30 0.33 0.34 0.34 0.35 0.33 0.27 0.22 0.19 0.18 0.18 0.19 0.23 0.28
0.00 0.00 0.00 0.00 0.00 0.00 0.00 0.00 0.00 0.00 0.00 0.01 0.01 0.01 0.02 0.04 0.05 0.06 0.08 0.13 0.17 0.22 0.26 0.28 0.29 0.32 0.40 0.48 0.46 0.39 0.36 0.31 0.30 0.30 0.27 0.18 0.16 0.17
0.00 0.00 0.00 0.00 0.00 0.00 0.00 0.00 0.00 0.00 0.01 0.01 0.02 0.02 0.03 0.05 0.06 0.08 0.10 0.12 0.15 0.17 0.20 0.25 0.30 0.34 0.40 0.42 0.40 0.39 0.34 0.27 0.25 0.26 0.29 0.26 0.17 0.12

GEFSNE_prec_meanprecacc_054.txt.gz
Total_Precipitation_Accumulation
0.15 0.15 0.15 0.15 0.14 0.14 0.16 0.21 0.26 0.19 0.08 0.09 0.14 0.14 0.13 0.16 0.21 0.22 0.20 0.21 0.23 0.22 0.22 0.30 0.39 0.48 0.57 0.72 1.00 1.33 1.51 1.63 1.47 1.23 0.96 0.70 0.54 0.45
0.21 0.21 0.21 0.21 0.20 0.18 0.17 0.17 0.21 0.24 0.15 0.07 0.12 0.18 0.20 0.21 0.24 0.24 0.23 0.23 0.21 0.22 0.21 0.23 0.30 0.39 0.49 0.60 0.69 0.90 1.15 1.33 1.41 1.40 1.36 1.15 0.85 0.66
0.27 0.28 0.29 0.28 0.27 0.25 0.23 0.21 0.20 0.24 0.21 0.08 0.06 0.12 0.22 0.26 0.27 0.25 0.24 0.21 0.16 0.18 0.21 0.22 0.26 0.32 0.39 0.49 0.59 0.69 0.90 1.05 1.15 1.30 1.43 1.39 1.18 0.90
0.31 0.33 0.33 0.33 0.33 0.32 0.31 0.28 0.25 0.24 0.25 0.16 0.08 0.10 0.17 0.25 0.31 0.31 0.25 0.21 0.17 0.16 0.20 0.22 0.25 0.29 0.34 0.39 0.45 0.56 0.72 0.96 1.03 1.03 1.14 1.24 1.21 1.10
0.28 0.31 0.34 0.38 0.39 0.37 0.37 0.36 0.32 0.27 0.24 0.20 0.13 0.11 0.15 0.22 0.28 0.32 0.31 0.27 0.22 0.20 0.19 0.22 0.25 0.28 0.31 0.36 0.39 0.42 0.48 0.61 0.86 1.04 1.13 1.18 1.14 1.07
0.29 0.30 0.33 0.37 0.41 0.45 0.49 0.45 0.38 0.34 0.30 0.25 0.19 0.16 0.16 0.21 0.29 0.33 0.36 0.35 0.33 0.27 0.22 0.20 0.23 0.25 0.26 0.27 0.29 0.35 0.41 0.54 0.71 0.96 1.08 1.14 1.07 0.98
0.33 0.33 0.35 0.42 0.51 0.60 0.62 0.56 0.47 0.40 0.35 0.32 0.27 0.23 0.21 0.25 0.31 0.35 0.38 0.37 0.38 0.37 0.30 0.22 0.19 0.17 0.19 0.24 0.28 0.31 0.38 0.46 0.54 0.67 0.89 1.03 1.07 1.02
0.36 0.33 0.32 0.35 0.40 0.47 0.57 0.54 0.51 0.47 0.43 0.40 0.39 0.37 0.32 0.30 0.34 0.42 0.48 0.45 0.42 0.36 0.28 0.24 0.23 0.22 0.17 0.18 0.27 0.31 0.32 0.37 0.44 0.53 0.62 0.76 0.89 0.97
0.29 0.24 0.23 0.24 0.25 0.23 0.28 0.27 0.29 0.38 0.47 0.50 0.54 0.55 0.48 0.41 0.42 0.49 0.55 0.54 0.45 0.43 0.35 0.33 0.28 0.25 0.22 0.25 0.31 0.30 0.33 0.36 0.37 0.41 0.48 0.58 0.68 0.80
0.21 0.22 0.23 0.22 0.21 0.17 0.16 0.18 0.20 0.27 0.40 0.50 0.60 0.63 0.61 0.56 0.52 0.57 0.67 0.71 0.63 0.56 0.49 0.46 0.43 0.35 0.29 0.29 0.35 0.34 0.31 0.31 0.34 0.37 0.40 0.44 0.52 0.64
0.19 0.28 0.30 0.25 0.21 0.11 0.10 0.16 0.18 0.22 0.28 0.39 0.49 0.51 0.52 0.59 0.62 0.63 0.69 0.78 0.87 0.86 0.75 0.66 0.59 0.48 0.40 0.36 0.37 0.40 0.40 0.36 0.34 0.36 0.38 0.40 0.42 0.48
0.16 0.28 0.44 0.35 0.22 0.08 0.06 0.10 0.14 0.17 0.18 0.18 0.22 0.26 0.30 0.37 0.49 0.66 0.75 0.76 0.86 0.97 0.92 0.81 0.74 0.57 0.53 0.46 0.35 0.32 0.37 0.45 0.44 0.43 0.44 0.45 0.44 0.42
0.16 0.28 0.44 0.33 0.16 0.08 0.05 0.07 0.11 0.10 0.11 0.12 0.14 0.17 0.21 0.29 0.41 0.56 0.69 0.74 0.77 0.86 0.86 0.80 0.78 0.62 0.47 0.46 0.38 0.31 0.26 0.29 0.35 0.44 0.50 0.53 0.54 0.52
0.16 0.22 0.29 0.21 0.12 0.06 0.03 0.04 0.03 0.02 0.04 0.05 0.07 0.10 0.15 0.24 0.35 0.47 0.58 0.65 0.73 0.78 0.74 0.66 0.66 0.57 0.40 0.31 0.32 0.33 0.29 0.27 0.27 0.32 0.39 0.55 0.61 0.60
0.21 0.33 0.23 0.11 0.06 0.03 0.01 0.00 0.00 0.00 0.01 0.02 0.04 0.06 0.10 0.16 0.22 0.31 0.41 0.50 0.56 0.63 0.65 0.59 0.56 0.54 0.43 0.30 0.22 0.23 0.27 0.30 0.28 0.29 0.34 0.41 0.49 0.54
0.09 0.18 0.15 0.05 0.01 0.00 0.00 0.00 0.00 0.00 0.01 0.02 0.03 0.03 0.04 0.07 0.12 0.20 0.30 0.39 0.47 0.57 0.62 0.64 0.63 0.61 0.55 0.41 0.26 0.21 0.21 0.26 0.29 0.28 0.30 0.34 0.41 0.44
0.09 0.07 0.05 0.02 0.01 0.00 0.00 0.00 0.00 0.00 0.00 0.01 0.02 0.02 0.04 0.05 0.09 0.15 0.24 0.32 0.42 0.53 0.62 0.71 0.75 0.73 0.70 0.61 0.49 0.36 0.27 0.25 0.25 0.27 0.29 0.33 0.38 0.41
0.07 0.05 0.04 0.03 0.01 0.01 0.00 0.00 0.00 0.00 0.00 0.01 0.02 0.02 0.04 0.06 0.08 0.11 0.19 0.27 0.36 0.44 0.51 0.62 0.71 0.77 0.83 0.89 0.72 0.48 0.33 0.29 0.29 0.31 0.32 0.33 0.36 0.33
0.03 0.02 0.02 0.01 0.01 0.00 0.00 0.00 0.00 0.00 0.00 0.01 0.02 0.02 0.04 0.06 0.08 0.10 0.15 0.23 0.32 0.39 0.44 0.49 0.57 0.68 0.75 0.82 0.88 0.60 0.38 0.28 0.27 0.33 0.38 0.35 0.32 0.26
0.02 0.01 0.01 0.00 0.00 0.00 0.00 0.00 0.00 0.00 0.00 0.01 0.01 0.02 0.03 0.06 0.08 0.10 0.14 0.22 0.31 0.37 0.42 0.47 0.55 0.60 0.62 0.54 0.52 0.57 0.45 0.32 0.28 0.30 0.34 0.33 0.34 0.34
0.01 0.01 0.00 0.00 0.00 0.00 0.00 0.00 0.00 0.00 0.00 0.01 0.01 0.01 0.02 0.05 0.07 0.08 0.12 0.20 0.30 0.37 0.41 0.44 0.53 0.57 0.56 0.52 0.52 0.55 0.54 0.44 0.33 0.28 0.25 0.25 0.29 0.33
0.02 0.01 0.01 0.01 0.00 0.00 0.00 0.00 0.00 0.00 0.00 0.01 0.01 0.02 0.02 0.05 0.07 0.09 0.12 0.18 0.25 0.31 0.37 0.43 0.47 0.54 0.62 0.67 0.66 0.59 0.56 0.52 0.48 0.42 0.33 0.22 0.18 0.19
0.04 0.03 0.02 0.01 0.01 0.00 0.00 0.00 0.00 0.00 0.01 0.01 0.02 0.02 0.03 0.05 0.07 0.10 0.12 0.16 0.20 0.24 0.29 0.37 0.45 0.51 0.59 0.62 0.60 0.57 0.50 0.40 0.36 0.35 0.37 0.30 0.20 0.14

GEFSNE_prec_meanprecacc_060.txt.gz
Total_Precipitation_Accumulation
0.16 0.15 0.16 0.15 0.15 0.16 0.19 0.26 0.32 0.23 0.10 0.10 0.16 0.17 0.15 0.18 0.24 0.26 0.26 0.29 0.32 0.32 0.32 0.37 0.45 0.52 0.62 0.83 1.27 1.83 2.22 2.41 2.18 1.76 1.33 0.95 0.75 0.64
0.23 0.23 0.22 0.22 0.21 0.20 0.19 0.20 0.25 0.29 0.19 0.09 0.14 0.20 0.22 0.23 0.26 0.26 0.27 0.30 0.30 0.33 0.33 0.33 0.38 0.44 0.53 0.65 0.80 1.16 1.64 1.99 2.15 2.09 1.90 1.55 1.15 0.90
0.30 0.31 0.31 0.31 0.30 0.28 0.26 0.24 0.24 0.29 0.26 0.10 0.07 0.14 0.24 0.28 0.29 0.27 0.26 0.25 0.23 0.28 0.33 0.34 0.36 0.39 0.43 0.53 0.64 0.81 1.17 1.52 1.76 2.00 2.11 1.95 1.58 1.18
0.35 0.38 0.38 0.36 0.37 0.35 0.35 0.32 0.28 0.27 0.29 0.19 0.09 0.11 0.19 0.27 0.32 0.32 0.26 0.23 0.21 0.23 0.30 0.35 0.37 0.38 0.40 0.43 0.49 0.62 0.85 1.22 1.44 1.56 1.78 1.85 1.68 1.44
0.33 0.37 0.41 0.45 0.46 0.43 0.42 0.40 0.35 0.29 0.27 0.24 0.15 0.12 0.16 0.24 0.29 0.33 0.32 0.30 0.26 0.26 0.27 0.33 0.39 0.39 0.39 0.41 0.42 0.46 0.54 0.73 1.06 1.39 1.60 1.76 1.67 1.47
0.34 0.36 0.40 0.46 0.52 0.57 0.58 0.50 0.42 0.38 0.33 0.27 0.20 0.17 0.17 0.23 0.31 0.35 0.37 0.38 0.37 0.32 0.29 0.29 0.34 0.38 0.36 0.33 0.32 0.37 0.44 0.60 0.84 1.19 1.42 1.57 1.61 1.45
0.36 0.37 0.40 0.49 0.61 0.70 0.71 0.64 0.52 0.44 0.38 0.33 0.28 0.24 0.23 0.27 0.33 0.37 0.40 0.40 0.43 0.43 0.37 0.30 0.27 0.27 0.30 0.33 0.33 0.33 0.41 0.50 0.60 0.80 1.13 1.37 1.50 1.52
0.39 0.36 0.35 0.38 0.43 0.50 0.60 0.58 0.55 0.50 0.46 0.42 0.41 0.38 0.34 0.32 0.36 0.44 0.50 0.48 0.46 0.42 0.36 0.32 0.31 0.32 0.27 0.28 0.34 0.34 0.34 0.39 0.48 0.60 0.75 0.99 1.21 1.40
0.31 0.26 0.25 0.26 0.26 0.24 0.28 0.27 0.30 0.39 0.49 0.52 0.56 0.57 0.50 0.43 0.44 0.50 0.58 0.57 0.50 0.48 0.42 0.43 0.39 0.35 0.31 0.34 0.39 0.35 0.35 0.38 0.40 0.45 0.56 0.71 0.90 1.13
0.24 0.24 0.25 0.24 0.23 0.18 0.16 0.18 0.20 0.27 0.41 0.51 0.61 0.65 0.63 0.58 0.54 0.59 0.69 0.73 0.66 0.61 0.55 0.56 0.54 0.44 0.38 0.37 0.41 0.38 0.34 0.33 0.36 0.40 0.44 0.52 0.66 0.87
0.21 0.30 0.31 0.27 0.23 0.12 0.11 0.16 0.18 0.22 0.28 0.40 0.49 0.52 0.53 0.60 0.64 0.64 0.70 0.79 0.90 0.90 0.80 0.74 0.70 0.58 0.49 0.44 0.43 0.45 0.43 0.38 0.36 0.38 0.41 0.46 0.52 0.65
0.17 0.29 0.45 0.36 0.23 0.08 0.06 0.10 0.14 0.18 0.18 0.19 0.22 0.26 0.30 0.37 0.50 0.67 0.77 0.78 0.89 1.02 0.98 0.87 0.82 0.68 0.63 0.55 0.42 0.37 0.40 0.47 0.47 0.45 0.47 0.49 0.51 0.51
0.16 0.29 0.44 0.33 0.17 0.08 0.05 0.07 0.12 0.11 0.11 0.12 0.14 0.17 0.21 0.30 0.42 0.56 0.70 0.77 0.80 0.89 0.91 0.87 0.86 0.72 0.58 0.54 0.45 0.36 0.31 0.31 0.37 0.46 0.53 0.58 0.61 0.59
0.17 0.22 0.29 0.21 0.12 0.06 0.03 0.04 0.03 0.03 0.04 0.06 0.07 0.10 0.15 0.24 0.36 0.47 0.59 0.67 0.76 0.81 0.79 0.72 0.73 0.66 0.49 0.38 0.37 0.40 0.35 0.32 0.30 0.35 0.42 0.60 0.69 0.69
0.22 0.34 0.23 0.12 0.06 0.03 0.01 0.00 0.00 0.00 0.01 0.03 0.04 0.06 0.10 0.16 0.23 0.32 0.41 0.51 0.58 0.66 0.69 0.64 0.62 0.62 0.53 0.38 0.27 0.28 0.34 0.38 0.34 0.32 0.37 0.45 0.54 0.59
0.10 0.18 0.15 0.05 0.01 0.00 0.00 0.00 0.00 0.00 0.01 0.02 0.04 0.04 0.05 0.07 0.12 0.21 0.31 0.40 0.49 0.60 0.66 0.69 0.69 0.69 0.66 0.53 0.34 0.26 0.26 0.34 0.38 0.33 0.33 0.37 0.44 0.48
0.10 0.07 0.05 0.03 0.01 0.01 0.00 0.00 0.00 0.00 0.01 0.01 0.02 0.03 0.04 0.06 0.09 0.16 0.25 0.34 0.44 0.57 0.66 0.76 0.82 0.83 0.83 0.76 0.63 0.46 0.33 0.30 0.33 0.33 0.32 0.36 0.43 0.46
0.08 0.06 0.05 0.03 0.02 0.01 0.00 0.00 0.00 0.00 0.01 0.01 0.02 0.03 0.05 0.07 0.09 0.12 0.20 0.29 0.38 0.48 0.56 0.68 0.79 0.88 0.99 1.09 0.94 0.65 0.44 0.37 0.38 0.38 0.36 0.37 0.41 0.40
0.04 0.03 0.02 0.02 0.01 0.01 0.01 0.00 0.00 0.00 0.01 0.02 0.03 0.03 0.05 0.07 0.09 0.11 0.17 0.25 0.35 0.43 0.50 0.56 0.65 0.79 0.90 1.03 1.14 0.84 0.53 0.39 0.38 0.44 0.45 0.39 0.36 0.33
0.03 0.02 0.02 0.01 0.01 0.01 0.01 0.00 0.00 0.00 0.00 0.01 0.02 0.02 0.04 0.08 0.10 0.11 0.16 0.25 0.34 0.42 0.48 0.55 0.64 0.72 0.76 0.68 0.71 0.84 0.69 0.47 0.39 0.43 0.46 0.41 0.41 0.42
0.02 0.02 0.02 0.01 0.01 0.01 0.00 0.00 0.00 0.00 0.01 0.01 0.02 0.02 0.03 0.07 0.09 0.10 0.14 0.22 0.33 0.41 0.47 0.53 0.64 0.71 0.71 0.66 0.68 0.80 0.83 0.71 0.50 0.41 0.37 0.34 0.37 0.41
0.03 0.03 0.03 0.02 0.02 0.01 0.01 0.00 0.00 0.00 0.01 0.01 0.02 0.02 0.03 0.06 0.09 0.11 0.14 0.20 0.28 0.36 0.43 0.52 0.59 0.69 0.81 0.86 0.85 0.81 0.84 0.84 0.80 0.66 0.49 0.30 0.23 0.24
0.07 0.06 0.04 0.04 0.03 0.02 0.01 0.01 0.01 0.01 0.01 0.01 0.02 0.03 0.04 0.06 0.08 0.11 0.15 0.18 0.24 0.29 0.35 0.45 0.56 0.66 0.80 0.84 0.82 0.79 0.72 0.65 0.63 0.62 0.67 0.51 0.30 0.19

GEFSNE_prec_meanprecacc_066.txt.gz
Total_Precipitation_Accumulation
0.20 0.20 0.21 0.19 0.18 0.19 0.22 0.30 0.38 0.27 0.11 0.10 0.17 0.18 0.17 0.19 0.25 0.27 0.27 0.29 0.33 0.34 0.34 0.39 0.47 0.54 0.64 0.86 1.33 1.97 2.45 2.75 2.59 2.14 1.65 1.26 1.06 0.95
0.28 0.28 0.27 0.26 0.26 0.24 0.23 0.24 0.30 0.37 0.24 0.10 0.15 0.21 0.23 0.24 0.27 0.27 0.28 0.31 0.31 0.34 0.35 0.35 0.40 0.46 0.55 0.67 0.83 1.24 1.81 2.26 2.55 2.56 2.30 1.89 1.47 1.22
0.34 0.36 0.36 0.36 0.35 0.33 0.31 0.29 0.29 0.35 0.33 0.13 0.09 0.15 0.25 0.29 0.30 0.27 0.26 0.25 0.24 0.29 0.36 0.37 0.39 0.41 0.46 0.56 0.67 0.85 1.27 1.71 2.08 2.45 2.61 2.42 2.00 1.53
0.38 0.42 0.42 0.42 0.43 0.42 0.42 0.38 0.34 0.35 0.38 0.24 0.12 0.12 0.20 0.28 0.33 0.33 0.27 0.24 0.22 0.25 0.32 0.38 0.40 0.41 0.43 0.46 0.53 0.66 0.91 1.35 1.67 1.92 2.25 2.35 2.16 1.87
0.36 0.40 0.45 0.49 0.52 0.51 0.50 0.46 0.41 0.34 0.32 0.29 0.18 0.14 0.18 0.25 0.31 0.34 0.33 0.30 0.26 0.27 0.29 0.36 0.43 0.43 0.43 0.44 0.46 0.51 0.60 0.82 1.20 1.62 1.99 2.26 2.17 1.93
0.35 0.38 0.43 0.50 0.57 0.62 0.64 0.55 0.45 0.41 0.36 0.31 0.23 0.20 0.20 0.24 0.33 0.37 0.38 0.38 0.38 0.33 0.31 0.32 0.39 0.43 0.41 0.38 0.37 0.41 0.49 0.68 0.96 1.34 1.65 1.98 2.12 1.94
0.37 0.38 0.42 0.51 0.64 0.74 0.75 0.67 0.55 0.47 0.40 0.35 0.30 0.25 0.24 0.29 0.36 0.40 0.42 0.41 0.44 0.45 0.40 0.33 0.32 0.32 0.35 0.39 0.40 0.40 0.47 0.55 0.68 0.92 1.26 1.56 1.85 1.99
0.40 0.36 0.35 0.39 0.44 0.51 0.61 0.59 0.57 0.52 0.48 0.43 0.42 0.40 0.36 0.35 0.40 0.47 0.53 0.50 0.48 0.44 0.38 0.36 0.36 0.38 0.35 0.36 0.42 0.42 0.41 0.45 0.53 0.67 0.86 1.11 1.37 1.68
0.32 0.27 0.25 0.27 0.27 0.25 0.29 0.27 0.30 0.39 0.50 0.54 0.58 0.58 0.52 0.46 0.48 0.54 0.60 0.60 0.53 0.51 0.46 0.48 0.45 0.43 0.41 0.45 0.50 0.44 0.43 0.44 0.45 0.49 0.63 0.81 1.00 1.25
0.24 0.25 0.25 0.24 0.23 0.19 0.17 0.18 0.21 0.27 0.41 0.51 0.62 0.66 0.64 0.60 0.58 0.64 0.72 0.75 0.69 0.64 0.59 0.62 0.62 0.53 0.49 0.48 0.53 0.48 0.43 0.41 0.42 0.45 0.50 0.59 0.74 0.95
0.22 0.31 0.32 0.27 0.24 0.14 0.11 0.16 0.19 0.22 0.28 0.40 0.50 0.52 0.54 0.62 0.67 0.67 0.72 0.82 0.93 0.94 0.85 0.81 0.80 0.68 0.61 0.56 0.55 0.57 0.53 0.47 0.43 0.44 0.47 0.51 0.58 0.72
0.18 0.29 0.46 0.37 0.24 0.10 0.08 0.11 0.14 0.18 0.18 0.19 0.22 0.26 0.30 0.37 0.51 0.69 0.80 0.82 0.94 1.07 1.04 0.94 0.92 0.79 0.76 0.69 0.55 0.48 0.51 0.58 0.56 0.52 0.53 0.55 0.58 0.59
0.17 0.29 0.45 0.35 0.19 0.10 0.07 0.08 0.13 0.11 0.11 0.12 0.14 0.17 0.21 0.30 0.42 0.58 0.73 0.80 0.85 0.95 0.98 0.94 0.96 0.84 0.71 0.70 0.60 0.51 0.43 0.42 0.46 0.54 0.60 0.66 0.68 0.66
0.18 0.23 0.30 0.22 0.14 0.07 0.04 0.05 0.04 0.03 0.04 0.06 0.07 0.10 0.15 0.24 0.36 0.48 0.60 0.69 0.79 0.86 0.85 0.80 0.83 0.79 0.64 0.53 0.53 0.57 0.51 0.46 0.41 0.43 0.49 0.69 0.79 0.78
0.23 0.35 0.24 0.13 0.07 0.04 0.02 0.01 0.01 0.01 0.02 0.03 0.04 0.06 0.10 0.16 0.23 0.32 0.42 0.53 0.60 0.69 0.73 0.71 0.70 0.74 0.67 0.53 0.42 0.44 0.52 0.56 0.50 0.44 0.45 0.52 0.62 0.69
0.11 0.19 0.15 0.06 0.01 0.01 0.00 0.00 0.01 0.01 0.02 0.03 0.04 0.04 0.05 0.08 0.13 0.22 0.32 0.42 0.50 0.62 0.69 0.74 0.76 0.79 0.78 0.66 0.48 0.41 0.41 0.54 0.57 0.48 0.43 0.46 0.52 0.55
0.12 0.08 0.05 0.03 0.02 0.01 0.00 0.00 0.00 0.01 0.01 0.02 0.03 0.04 0.05 0.07 0.10 0.16 0.27 0.35 0.46 0.59 0.70 0.81 0.89 0.93 0.95 0.90 0.78 0.61 0.48 0.47 0.53 0.51 0.45 0.47 0.55 0.57
0.10 0.06 0.05 0.03 0.02 0.02 0.01 0.01 0.00 0.01 0.01 0.02 0.03 0.04 0.06 0.08 0.10 0.13 0.21 0.31 0.40 0.51 0.60 0.73 0.86 0.97 1.11 1.23 1.11 0.82 0.60 0.53 0.58 0.60 0.51 0.47 0.54 0.54
0.04 0.03 0.03 0.02 0.02 0.02 0.01 0.01 0.01 0.01 0.01 0.02 0.04 0.05 0.06 0.09 0.10 0.13 0.18 0.27 0.37 0.46 0.54 0.60 0.72 0.89 1.03 1.18 1.31 1.02 0.69 0.54 0.57 0.69 0.68 0.53 0.47 0.47
0.03 0.03 0.03 0.02 0.02 0.02 0.01 0.01 0.01 0.01 0.01 0.02 0.03 0.04 0.06 0.09 0.11 0.13 0.17 0.27 0.36 0.45 0.52 0.60 0.71 0.82 0.88 0.81 0.86 1.02 0.88 0.63 0.56 0.66 0.72 0.61 0.55 0.58
0.03 0.03 0.03 0.03 0.03 0.02 0.01 0.01 0.01 0.01 0.01 0.02 0.03 0.03 0.05 0.08 0.11 0.12 0.16 0.24 0.35 0.44 0.51 0.58 0.72 0.81 0.84 0.77 0.81 0.97 1.03 0.93 0.70 0.60 0.56 0.51 0.50 0.53
0.05 0.05 0.04 0.03 0.04 0.03 0.02 0.02 0.01 0.01 0.01 0.02 0.03 0.03 0.04 0.07 0.10 0.12 0.16 0.23 0.31 0.40 0.48 0.57 0.66 0.79 0.93 0.96 0.98 0.98 1.02 1.05 1.03 0.87 0.67 0.43 0.32 0.33
0.08 0.07 0.06 0.05 0.05 0.04 0.03 0.02 0.02 0.02 0.01 0.02 0.03 0.03 0.05 0.08 0.10 0.13 0.16 0.21 0.27 0.33 0.39 0.50 0.63 0.77 0.93 0.96 0.95 0.94 0.87 0.81 0.80 0.83 0.92 0.73 0.44 0.29

GEFSNE_prec_meanprecacc_072.txt.gz
Total_Precipitation_Accumulation
0.21 0.21 0.23 0.21 0.21 0.22 0.26 0.36 0.46 0.34 0.13 0.11 0.18 0.19 0.18 0.21 0.26 0.28 0.27 0.30 0.35 0.35 0.36 0.41 0.49 0.56 0.65 0.88 1.35 1.98 2.47 2.78 2.65 2.24 1.81 1.53 1.45 1.44
0.29 0.29 0.29 0.28 0.28 0.26 0.26 0.28 0.37 0.46 0.30 0.11 0.16 0.22 0.25 0.25 0.28 0.28 0.28 0.32 0.32 0.35 0.36 0.37 0.42 0.48 0.56 0.68 0.84 1.25 1.83 2.29 2.59 2.64 2.42 2.10 1.80 1.66
0.34 0.36 0.37 0.37 0.37 0.35 0.34 0.33 0.34 0.43 0.41 0.15 0.09 0.16 0.27 0.31 0.31 0.28 0.27 0.26 0.24 0.30 0.36 0.38 0.40 0.43 0.47 0.57 0.68 0.86 1.28 1.73 2.11 2.50 2.71 2.57 2.26 1.88
0.39 0.42 0.43 0.43 0.44 0.44 0.44 0.41 0.38 0.39 0.44 0.28 0.13 0.14 0.22 0.30 0.35 0.34 0.27 0.24 0.23 0.25 0.33 0.39 0.41 0.43 0.44 0.47 0.53 0.67 0.92 1.36 1.69 1.95 2.30 2.45 2.34 2.17
0.36 0.41 0.45 0.50 0.53 0.52 0.51 0.48 0.42 0.36 0.34 0.31 0.19 0.16 0.20 0.26 0.31 0.35 0.34 0.31 0.27 0.27 0.29 0.37 0.44 0.45 0.45 0.45 0.47 0.51 0.60 0.82 1.21 1.64 2.03 2.34 2.31 2.16
0.35 0.38 0.44 0.51 0.58 0.63 0.65 0.56 0.46 0.42 0.37 0.32 0.24 0.21 0.21 0.25 0.33 0.38 0.39 0.39 0.38 0.33 0.31 0.32 0.39 0.44 0.42 0.39 0.38 0.42 0.50 0.68 0.98 1.36 1.67 2.03 2.23 2.13
0.38 0.39 0.43 0.53 0.66 0.77 0.79 0.71 0.58 0.49 0.41 0.36 0.31 0.26 0.25 0.30 0.38 0.41 0.43 0.41 0.44 0.46 0.40 0.33 0.32 0.33 0.36 0.40 0.41 0.42 0.48 0.56 0.69 0.94 1.30 1.60 1.92 2.12
0.42 0.38 0.36 0.40 0.46 0.53 0.64 0.63 0.60 0.55 0.50 0.45 0.43 0.41 0.36 0.36 0.41 0.49 0.55 0.52 0.49 0.45 0.39 0.37 0.38 0.39 0.36 0.37 0.44 0.44 0.43 0.46 0.54 0.69 0.90 1.16 1.43 1.78
0.34 0.29 0.27 0.28 0.28 0.26 0.30 0.29 0.31 0.40 0.51 0.56 0.59 0.59 0.52 0.47 0.50 0.56 0.63 0.63 0.55 0.52 0.48 0.51 0.48 0.45 0.43 0.47 0.54 0.47 0.46 0.46 0.47 0.51 0.65 0.86 1.06 1.33
0.26 0.27 0.27 0.25 0.24 0.22 0.22 0.21 0.22 0.28 0.41 0.52 0.62 0.66 0.65 0.62 0.61 0.67 0.76 0.78 0.71 0.66 0.62 0.67 0.66 0.56 0.51 0.50 0.57 0.53 0.46 0.44 0.45 0.47 0.52 0.62 0.80 1.03
0.24 0.32 0.34 0.29 0.26 0.20 0.20 0.21 0.21 0.23 0.28 0.40 0.50 0.53 0.55 0.63 0.69 0.70 0.76 0.85 0.96 0.96 0.88 0.86 0.86 0.72 0.64 0.59 0.59 0.62 0.57 0.50 0.46 0.47 0.50 0.54 0.63 0.80
0.20 0.30 0.46 0.40 0.29 0.18 0.15 0.14 0.16 0.19 0.19 0.19 0.22 0.27 0.31 0.38 0.52 0.72 0.83 0.86 0.98 1.11 1.08 0.99 1.00 0.87 0.82 0.74 0.60 0.54 0.55 0.62 0.59 0.56 0.58 0.60 0.64 0.66
0.19 0.30 0.46 0.37 0.24 0.15 0.10 0.10 0.15 0.14 0.12 0.12 0.14 0.17 0.22 0.30 0.43 0.59 0.76 0.85 0.90 1.00 1.02 1.01 1.05 0.95 0.81 0.78 0.67 0.59 0.50 0.48 0.50 0.58 0.66 0.72 0.75 0.71
0.20 0.24 0.32 0.26 0.18 0.10 0.06 0.07 0.06 0.04 0.04 0.06 0.07 0.10 0.15 0.24 0.37 0.49 0.62 0.72 0.84 0.91 0.90 0.87 0.93 0.91 0.75 0.63 0.62 0.67 0.61 0.55 0.47 0.48 0.54 0.76 0.88 0.87
0.24 0.37 0.27 0.15 0.08 0.05 0.02 0.02 0.02 0.02 0.02 0.04 0.05 0.07 0.10 0.17 0.24 0.33 0.44 0.55 0.63 0.72 0.77 0.76 0.79 0.85 0.79 0.65 0.54 0.57 0.66 0.70 0.61 0.52 0.52 0.58 0.70 0.77
0.13 0.20 0.16 0.06 0.02 0.01 0.01 0.01 0.01 0.01 0.03 0.04 0.04 0.05 0.05 0.08 0.14 0.23 0.34 0.44 0.53 0.64 0.72 0.78 0.83 0.89 0.90 0.78 0.63 0.56 0.58 0.71 0.74 0.61 0.53 0.54 0.60 0.63
0.14 0.09 0.06 0.03 0.02 0.01 0.01 0.00 0.00 0.01 0.01 0.02 0.04 0.04 0.05 0.07 0.11 0.18 0.29 0.38 0.50 0.63 0.73 0.85 0.95 1.01 1.07 1.03 0.92 0.77 0.66 0.65 0.73 0.70 0.59 0.59 0.67 0.67
0.10 0.07 0.05 0.04 0.03 0.02 0.01 0.01 0.01 0.01 0.02 0.03 0.04 0.05 0.07 0.09 0.11 0.14 0.23 0.34 0.44 0.54 0.64 0.78 0.94 1.07 1.23 1.35 1.24 0.98 0.78 0.74 0.82 0.84 0.70 0.61 0.68 0.68
0.05 0.04 0.03 0.03 0.03 0.02 0.02 0.02 0.02 0.01 0.02 0.03 0.04 0.05 0.07 0.10 0.11 0.14 0.20 0.30 0.40 0.50 0.59 0.67 0.82 1.01 1.16 1.32 1.44 1.20 0.90 0.77 0.84 0.99 0.92 0.69 0.61 0.61
0.04 0.04 0.03 0.03 0.03 0.03 0.02 0.02 0.02 0.01 0.02 0.03 0.04 0.05 0.07 0.11 0.13 0.15 0.20 0.30 0.40 0.49 0.57 0.67 0.81 0.94 1.03 0.97 1.03 1.22 1.12 0.88 0.83 0.96 1.01 0.83 0.74 0.79
0.04 0.04 0.03 0.04 0.04 0.03 0.03 0.02 0.02 0.02 0.02 0.03 0.04 0.04 0.06 0.10 0.12 0.14 0.18 0.27 0.39 0.48 0.57 0.66 0.82 0.93 0.99 0.93 0.98 1.19 1.28 1.21 0.99 0.89 0.86 0.76 0.73 0.77
0.05 0.05 0.04 0.04 0.05 0.04 0.04 0.03 0.03 0.02 0.02 0.03 0.04 0.04 0.05 0.09 0.12 0.14 0.18 0.26 0.35 0.45 0.54 0.64 0.74 0.90 1.08 1.13 1.17 1.20 1.25 1.31 1.35 1.23 1.01 0.72 0.55 0.54
0.09 0.08 0.06 0.06 0.06 0.05 0.05 0.04 0.03 0.03 0.02 0.03 0.04 0.04 0.06 0.09 0.11 0.15 0.18 0.23 0.30 0.37 0.45 0.57 0.72 0.89 1.10 1.14 1.15 1.15 1.10 1.08 1.12 1.19 1.34 1.15 0.77 0.52

GEFSNE_prec_meanprecacc_078.txt.gz
Total_Precipitation_Accumulation
0.21 0.21 0.23 0.21 0.21 0.22 0.27 0.38 0.51 0.37 0.13 0.11 0.18 0.20 0.20 0.23 0.28 0.31 0.29 0.31 0.36 0.38 0.39 0.45 0.52 0.58 0.67 0.90 1.37 2.01 2.50 2.81 2.69 2.28 1.86 1.65 1.77 1.98
0.29 0.29 0.29 0.28 0.28 0.27 0.27 0.29 0.39 0.50 0.33 0.11 0.16 0.22 0.26 0.26 0.30 0.31 0.30 0.33 0.34 0.37 0.39 0.40 0.45 0.50 0.58 0.70 0.86 1.27 1.85 2.30 2.61 2.68 2.47 2.18 2.02 2.10
0.34 0.36 0.37 0.37 0.37 0.35 0.34 0.34 0.35 0.46 0.45 0.15 0.09 0.16 0.27 0.32 0.32 0.29 0.28 0.27 0.25 0.31 0.38 0.40 0.43 0.45 0.49 0.58 0.69 0.88 1.29 1.75 2.13 2.53 2.75 2.63 2.38 2.19
0.39 0.42 0.43 0.43 0.45 0.44 0.44 0.42 0.39 0.41 0.47 0.30 0.13 0.14 0.23 0.30 0.35 0.34 0.28 0.25 0.24 0.26 0.34 0.41 0.44 0.45 0.46 0.49 0.55 0.68 0.93 1.37 1.71 1.97 2.33 2.50 2.41 2.38
0.36 0.41 0.46 0.51 0.54 0.52 0.52 0.49 0.44 0.38 0.37 0.34 0.20 0.16 0.20 0.27 0.32 0.35 0.34 0.31 0.27 0.27 0.30 0.38 0.46 0.47 0.47 0.47 0.49 0.53 0.61 0.83 1.22 1.66 2.05 2.37 2.37 2.28
0.36 0.39 0.45 0.52 0.59 0.64 0.67 0.58 0.50 0.46 0.40 0.34 0.25 0.21 0.21 0.25 0.34 0.38 0.39 0.39 0.38 0.34 0.31 0.33 0.40 0.45 0.44 0.41 0.40 0.44 0.51 0.70 0.99 1.38 1.69 2.06 2.26 2.20
0.39 0.40 0.43 0.54 0.68 0.81 0.87 0.78 0.67 0.57 0.46 0.40 0.33 0.26 0.25 0.30 0.38 0.41 0.43 0.42 0.44 0.46 0.40 0.33 0.32 0.33 0.37 0.41 0.42 0.42 0.49 0.57 0.70 0.95 1.31 1.61 1.94 2.16
0.43 0.39 0.37 0.41 0.47 0.56 0.68 0.68 0.67 0.63 0.58 0.51 0.48 0.43 0.37 0.37 0.41 0.50 0.56 0.53 0.49 0.45 0.40 0.37 0.38 0.40 0.36 0.37 0.44 0.45 0.43 0.46 0.55 0.70 0.91 1.17 1.44 1.80
0.34 0.29 0.27 0.28 0.28 0.27 0.32 0.31 0.34 0.44 0.56 0.61 0.64 0.61 0.54 0.48 0.51 0.57 0.64 0.64 0.56 0.53 0.48 0.51 0.48 0.45 0.43 0.47 0.54 0.48 0.46 0.47 0.47 0.52 0.66 0.87 1.07 1.34
0.26 0.28 0.27 0.26 0.24 0.25 0.28 0.27 0.25 0.29 0.42 0.53 0.64 0.67 0.66 0.63 0.63 0.70 0.78 0.80 0.71 0.67 0.64 0.68 0.66 0.56 0.51 0.50 0.57 0.53 0.46 0.44 0.45 0.48 0.53 0.63 0.81 1.04
0.24 0.33 0.34 0.30 0.27 0.26 0.29 0.29 0.24 0.24 0.29 0.41 0.52 0.54 0.56 0.65 0.72 0.74 0.78 0.87 0.97 0.97 0.89 0.88 0.86 0.72 0.64 0.59 0.60 0.62 0.58 0.50 0.47 0.48 0.51 0.55 0.64 0.81
0.20 0.30 0.47 0.41 0.32 0.24 0.23 0.21 0.19 0.21 0.20 0.19 0.23 0.27 0.31 0.38 0.54 0.74 0.86 0.88 1.00 1.12 1.08 1.01 1.01 0.89 0.83 0.74 0.61 0.54 0.56 0.62 0.60 0.57 0.59 0.61 0.65 0.67
0.20 0.30 0.46 0.39 0.28 0.20 0.15 0.14 0.19 0.19 0.15 0.13 0.14 0.17 0.22 0.30 0.43 0.60 0.78 0.88 0.93 1.02 1.03 1.04 1.07 0.97 0.84 0.79 0.68 0.60 0.51 0.49 0.51 0.59 0.67 0.73 0.76 0.73
0.21 0.24 0.32 0.29 0.21 0.14 0.09 0.09 0.10 0.07 0.06 0.07 0.08 0.10 0.15 0.24 0.37 0.50 0.64 0.75 0.86 0.94 0.92 0.92 0.98 0.94 0.80 0.66 0.64 0.69 0.63 0.56 0.49 0.49 0.56 0.79 0.90 0.89
0.25 0.38 0.28 0.17 0.10 0.06 0.03 0.03 0.03 0.02 0.03 0.04 0.06 0.07 0.11 0.17 0.24 0.34 0.45 0.57 0.66 0.74 0.80 0.80 0.84 0.89 0.85 0.71 0.57 0.60 0.70 0.73 0.63 0.55 0.55 0.61 0.73 0.81
0.13 0.21 0.17 0.07 0.02 0.01 0.01 0.01 0.01 0.02 0.04 0.05 0.05 0.05 0.06 0.09 0.14 0.24 0.35 0.46 0.56 0.67 0.75 0.82 0.87 0.95 0.96 0.84 0.67 0.60 0.63 0.75 0.78 0.66 0.58 0.58 0.64 0.66
0.16 0.10 0.06 0.03 0.02 0.01 0.01 0.01 0.01 0.01 0.02 0.03 0.04 0.05 0.06 0.08 0.12 0.19 0.31 0.41 0.53 0.66 0.76 0.88 0.99 1.06 1.13 1.10 0.97 0.81 0.71 0.71 0.78 0.76 0.65 0.65 0.72 0.71
0.11 0.07 0.05 0.04 0.03 0.03 0.02 0.01 0.01 0.02 0.03 0.04 0.05 0.06 0.08 0.10 0.12 0.16 0.25 0.36 0.47 0.57 0.67 0.82 0.99 1.13 1.31 1.42 1.30 1.05 0.85 0.80 0.88 0.92 0.78 0.68 0.75 0.74
0.05 0.04 0.04 0.03 0.03 0.03 0.03 0.02 0.02 0.02 0.03 0.05 0.06 0.07 0.09 0.11 0.13 0.16 0.22 0.32 0.43 0.52 0.61 0.71 0.88 1.10 1.25 1.40 1.51 1.28 0.98 0.84 0.91 1.07 1.01 0.77 0.68 0.66
0.04 0.04 0.04 0.03 0.04 0.04 0.03 0.03 0.03 0.02 0.03 0.04 0.05 0.06 0.08 0.13 0.15 0.17 0.23 0.34 0.43 0.51 0.60 0.70 0.87 1.03 1.12 1.06 1.12 1.31 1.22 0.97 0.91 1.07 1.12 0.92 0.82 0.88
0.04 0.04 0.04 0.04 0.05 0.04 0.04 0.03 0.03 0.03 0.03 0.04 0.05 0.05 0.07 0.12 0.15 0.17 0.21 0.31 0.43 0.52 0.60 0.70 0.88 1.02 1.09 1.03 1.08 1.29 1.37 1.31 1.10 1.02 0.97 0.87 0.86 0.91
0.05 0.06 0.05 0.05 0.06 0.05 0.05 0.04 0.04 0.03 0.03 0.04 0.05 0.05 0.07 0.11 0.14 0.17 0.22 0.29 0.39 0.49 0.58 0.68 0.80 0.99 1.18 1.23 1.27 1.31 1.36 1.42 1.47 1.38 1.16 0.85 0.68 0.68
0.09 0.08 0.07 0.06 0.07 0.06 0.06 0.05 0.04 0.04 0.03 0.04 0.05 0.05 0.07 0.10 0.13 0.17 0.21 0.27 0.35 0.42 0.50 0.62 0.79 0.98 1.19 1.25 1.26 1.27 1.21 1.19 1.26 1.35 1.52 1.32 0.91 0.63

GEFSNE_prec_meanprecacc_084.txt.gz
Total_Precipitation_Accumulation
0.21 0.21 0.23 0.21 0.21 0.22 0.27 0.39 0.53 0.39 0.14 0.11 0.18 0.20 0.20 0.23 0.28 0.32 0.30 0.31 0.37 0.40 0.42 0.48 0.57 0.63 0.73 0.96 1.44 2.09 2.59 2.90 2.78 2.37 1.95 1.75 1.90 2.16
0.29 0.29 0.29 0.28 0.28 0.27 0.27 0.30 0.41 0.53 0.35 0.11 0.16 0.22 0.26 0.26 0.30 0.31 0.31 0.33 0.34 0.38 0.40 0.42 0.48 0.55 0.64 0.76 0.92 1.33 1.92 2.37 2.69 2.75 2.55 2.27 2.13 2.25
0.34 0.36 0.38 0.37 0.37 0.35 0.34 0.34 0.36 0.48 0.48 0.16 0.10 0.16 0.27 0.32 0.32 0.30 0.28 0.27 0.25 0.31 0.39 0.42 0.45 0.49 0.53 0.63 0.75 0.93 1.35 1.81 2.19 2.60 2.83 2.71 2.47 2.31
0.39 0.42 0.43 0.43 0.45 0.44 0.45 0.43 0.40 0.42 0.50 0.32 0.13 0.14 0.23 0.31 0.35 0.34 0.28 0.26 0.24 0.26 0.34 0.42 0.45 0.48 0.49 0.53 0.59 0.73 0.98 1.42 1.76 2.02 2.39 2.55 2.48 2.47
0.36 0.41 0.46 0.51 0.54 0.52 0.52 0.50 0.45 0.39 0.39 0.37 0.22 0.17 0.20 0.27 0.32 0.35 0.34 0.31 0.28 0.28 0.30 0.38 0.46 0.49 0.50 0.50 0.52 0.56 0.65 0.87 1.26 1.69 2.09 2.41 2.43 2.35
0.36 0.39 0.45 0.53 0.60 0.65 0.68 0.59 0.51 0.49 0.44 0.39 0.28 0.22 0.22 0.26 0.34 0.38 0.39 0.39 0.39 0.34 0.32 0.33 0.40 0.46 0.46 0.43 0.42 0.47 0.54 0.72 1.02 1.40 1.72 2.08 2.30 2.25
0.40 0.41 0.44 0.54 0.69 0.83 0.90 0.83 0.73 0.65 0.53 0.46 0.37 0.29 0.27 0.32 0.39 0.42 0.44 0.42 0.45 0.46 0.41 0.33 0.33 0.33 0.37 0.42 0.44 0.45 0.52 0.60 0.73 0.98 1.33 1.64 1.97 2.20
0.44 0.39 0.37 0.41 0.48 0.57 0.71 0.72 0.73 0.72 0.67 0.61 0.55 0.48 0.40 0.38 0.42 0.51 0.57 0.54 0.50 0.45 0.40 0.37 0.38 0.40 0.36 0.38 0.45 0.46 0.46 0.49 0.57 0.72 0.92 1.19 1.47 1.83
0.35 0.30 0.28 0.28 0.28 0.27 0.32 0.32 0.36 0.46 0.60 0.68 0.70 0.65 0.56 0.49 0.52 0.59 0.66 0.66 0.57 0.53 0.49 0.52 0.48 0.46 0.43 0.47 0.54 0.48 0.48 0.49 0.50 0.54 0.68 0.88 1.09 1.37
0.27 0.28 0.28 0.26 0.24 0.25 0.29 0.29 0.27 0.30 0.43 0.55 0.66 0.69 0.67 0.64 0.66 0.74 0.81 0.82 0.73 0.68 0.65 0.69 0.66 0.56 0.51 0.50 0.57 0.53 0.47 0.46 0.48 0.51 0.55 0.64 0.82 1.06
0.24 0.33 0.35 0.30 0.28 0.28 0.32 0.33 0.27 0.26 0.30 0.43 0.54 0.57 0.60 0.69 0.78 0.82 0.85 0.92 1.00 0.98 0.91 0.90 0.87 0.73 0.65 0.59 0.60 0.62 0.58 0.52 0.49 0.50 0.53 0.57 0.65 0.84
0.21 0.31 0.47 0.41 0.34 0.27 0.27 0.26 0.23 0.23 0.21 0.21 0.24 0.28 0.33 0.40 0.56 0.78 0.90 0.92 1.02 1.13 1.10 1.03 1.02 0.90 0.84 0.74 0.61 0.55 0.56 0.63 0.61 0.58 0.60 0.62 0.67 0.70
0.21 0.31 0.46 0.39 0.29 0.22 0.19 0.19 0.23 0.23 0.19 0.16 0.16 0.19 0.23 0.31 0.44 0.61 0.79 0.90 0.96 1.03 1.04 1.05 1.09 0.99 0.86 0.80 0.69 0.60 0.52 0.49 0.51 0.60 0.68 0.74 0.78 0.76
0.22 0.25 0.33 0.29 0.23 0.16 0.11 0.12 0.13 0.11 0.09 0.09 0.09 0.11 0.16 0.25 0.37 0.51 0.65 0.77 0.89 0.96 0.94 0.94 1.00 0.96 0.82 0.68 0.65 0.70 0.64 0.57 0.49 0.50 0.56 0.79 0.91 0.91
0.25 0.38 0.29 0.18 0.11 0.07 0.04 0.04 0.04 0.03 0.04 0.05 0.06 0.07 0.11 0.18 0.25 0.35 0.46 0.59 0.68 0.77 0.83 0.83 0.86 0.91 0.88 0.73 0.58 0.61 0.70 0.73 0.64 0.55 0.56 0.62 0.74 0.82
0.14 0.21 0.17 0.07 0.02 0.01 0.01 0.01 0.01 0.02 0.04 0.06 0.06 0.05 0.06 0.09 0.15 0.25 0.37 0.48 0.59 0.69 0.77 0.84 0.89 0.97 0.99 0.85 0.68 0.61 0.64 0.77 0.79 0.67 0.59 0.59 0.65 0.68
0.16 0.10 0.07 0.04 0.02 0.01 0.01 0.01 0.01 0.01 0.02 0.03 0.05 0.06 0.07 0.09 0.13 0.20 0.32 0.43 0.56 0.68 0.79 0.91 1.02 1.08 1.15 1.12 0.99 0.83 0.72 0.71 0.79 0.77 0.67 0.66 0.73 0.73
0.12 0.08 0.06 0.04 0.03 0.03 0.02 0.01 0.01 0.02 0.03 0.04 0.06 0.07 0.09 0.11 0.13 0.17 0.27 0.38 0.49 0.60 0.70 0.85 1.02 1.16 1.33 1.45 1.32 1.07 0.87 0.81 0.90 0.93 0.80 0.71 0.76 0.76
0.06 0.04 0.04 0.03 0.03 0.03 0.03 0.03 0.03 0.02 0.04 0.05 0.06 0.08 0.10 0.13 0.15 0.18 0.24 0.34 0.45 0.55 0.65 0.75 0.92 1.13 1.28 1.42 1.52 1.30 1.00 0.85 0.94 1.10 1.04 0.79 0.69 0.68
0.04 0.05 0.04 0.04 0.04 0.04 0.04 0.03 0.03 0.02 0.03 0.05 0.06 0.07 0.10 0.15 0.17 0.19 0.25 0.36 0.46 0.54 0.63 0.74 0.91 1.07 1.16 1.08 1.14 1.33 1.23 0.99 0.94 1.09 1.14 0.95 0.84 0.91
0.04 0.04 0.04 0.05 0.05 0.05 0.04 0.04 0.04 0.04 0.04 0.05 0.05 0.06 0.09 0.14 0.17 0.18 0.23 0.34 0.46 0.55 0.63 0.73 0.92 1.07 1.13 1.07 1.12 1.30 1.39 1.33 1.13 1.04 1.00 0.90 0.89 0.95
0.06 0.06 0.05 0.05 0.06 0.06 0.05 0.04 0.04 0.03 0.03 0.04 0.05 0.06 0.08 0.13 0.16 0.18 0.24 0.32 0.42 0.52 0.62 0.72 0.85 1.04 1.24 1.29 1.32 1.34 1.38 1.43 1.50 1.40 1.19 0.89 0.71 0.71
0.10 0.09 0.07 0.07 0.07 0.06 0.06 0.05 0.05 0.04 0.04 0.05 0.06 0.06 0.09 0.13 0.15 0.19 0.23 0.31 0.39 0.46 0.54 0.66 0.84 1.05 1.27 1.32 1.32 1.31 1.25 1.23 1.29 1.37 1.55 1.37 0.94 0.65

GEFSNE_prec_meanprecacc_090.txt.gz
Total_Precipitation_Accumulation
0.21 0.21 0.23 0.21 0.21 0.22 0.27 0.39 0.53 0.40 0.14 0.11 0.18 0.20 0.20 0.23 0.28 0.32 0.30 0.31 0.37 0.40 0.43 0.50 0.59 0.66 0.76 0.99 1.47 2.13 2.63 2.97 2.87 2.48 2.07 1.89 2.05 2.33
0.29 0.29 0.29 0.28 0.28 0.27 0.27 0.30 0.41 0.54 0.36 0.11 0.16 0.22 0.26 0.27 0.30 0.31 0.31 0.33 0.35 0.39 0.41 0.44 0.50 0.56 0.66 0.78 0.95 1.37 1.97 2.43 2.76 2.84 2.66 2.39 2.26 2.41
0.34 0.37 0.38 0.37 0.37 0.35 0.35 0.34 0.37 0.49 0.49 0.16 0.10 0.17 0.28 0.32 0.32 0.30 0.28 0.27 0.26 0.31 0.39 0.42 0.46 0.50 0.55 0.65 0.77 0.96 1.39 1.85 2.25 2.68 2.92 2.83 2.60 2.47
0.39 0.43 0.44 0.44 0.45 0.45 0.45 0.43 0.41 0.43 0.51 0.32 0.13 0.14 0.23 0.31 0.35 0.35 0.28 0.26 0.24 0.26 0.35 0.43 0.46 0.49 0.51 0.55 0.61 0.75 1.01 1.46 1.80 2.08 2.46 2.65 2.60 2.61
0.37 0.42 0.47 0.52 0.55 0.53 0.53 0.51 0.45 0.39 0.39 0.38 0.22 0.17 0.21 0.27 0.32 0.35 0.34 0.31 0.28 0.28 0.30 0.39 0.47 0.49 0.51 0.52 0.54 0.58 0.67 0.90 1.29 1.73 2.14 2.48 2.51 2.45
0.37 0.40 0.46 0.54 0.61 0.66 0.69 0.60 0.52 0.49 0.45 0.40 0.29 0.23 0.22 0.26 0.35 0.39 0.40 0.39 0.39 0.34 0.32 0.33 0.40 0.47 0.46 0.44 0.43 0.48 0.56 0.74 1.04 1.43 1.76 2.13 2.35 2.32
0.40 0.42 0.45 0.55 0.70 0.84 0.91 0.84 0.75 0.67 0.56 0.49 0.40 0.32 0.29 0.34 0.41 0.43 0.45 0.42 0.45 0.46 0.41 0.33 0.33 0.34 0.37 0.42 0.44 0.46 0.53 0.62 0.75 1.01 1.37 1.68 2.02 2.25
0.45 0.40 0.38 0.42 0.49 0.59 0.73 0.75 0.76 0.76 0.72 0.65 0.59 0.51 0.42 0.40 0.44 0.52 0.59 0.55 0.51 0.45 0.40 0.37 0.38 0.40 0.37 0.38 0.45 0.47 0.47 0.50 0.59 0.74 0.95 1.22 1.50 1.87
0.36 0.31 0.29 0.29 0.30 0.29 0.35 0.36 0.40 0.50 0.64 0.72 0.75 0.68 0.57 0.51 0.54 0.61 0.67 0.68 0.58 0.54 0.50 0.53 0.48 0.46 0.43 0.47 0.54 0.49 0.49 0.51 0.52 0.56 0.70 0.91 1.13 1.41
0.28 0.30 0.30 0.28 0.26 0.28 0.32 0.32 0.30 0.32 0.45 0.57 0.68 0.70 0.68 0.65 0.68 0.76 0.84 0.85 0.75 0.68 0.66 0.71 0.67 0.57 0.52 0.50 0.57 0.54 0.48 0.48 0.50 0.53 0.58 0.68 0.86 1.10
0.25 0.35 0.37 0.32 0.29 0.30 0.37 0.36 0.29 0.27 0.31 0.45 0.57 0.60 0.63 0.73 0.83 0.91 0.95 1.00 1.04 1.00 0.91 0.92 0.88 0.74 0.65 0.59 0.60 0.63 0.59 0.53 0.51 0.53 0.57 0.60 0.69 0.88
0.23 0.33 0.50 0.44 0.36 0.30 0.32 0.30 0.26 0.24 0.22 0.23 0.26 0.30 0.34 0.42 0.59 0.82 0.96 0.99 1.09 1.17 1.11 1.04 1.04 0.92 0.86 0.75 0.61 0.55 0.57 0.64 0.63 0.61 0.64 0.66 0.71 0.75
0.24 0.34 0.48 0.41 0.33 0.26 0.23 0.23 0.25 0.25 0.22 0.19 0.18 0.20 0.24 0.32 0.44 0.62 0.80 0.93 1.00 1.07 1.06 1.08 1.12 1.01 0.89 0.81 0.69 0.61 0.52 0.49 0.52 0.62 0.71 0.77 0.81 0.80
0.25 0.27 0.34 0.31 0.26 0.20 0.16 0.16 0.16 0.15 0.13 0.12 0.11 0.12 0.17 0.26 0.38 0.51 0.66 0.78 0.90 0.98 0.95 0.97 1.04 0.99 0.85 0.70 0.66 0.70 0.64 0.57 0.50 0.51 0.58 0.82 0.93 0.94
0.29 0.40 0.31 0.20 0.14 0.10 0.08 0.08 0.07 0.06 0.06 0.07 0.07 0.08 0.11 0.18 0.25 0.35 0.47 0.60 0.69 0.79 0.85 0.85 0.89 0.94 0.91 0.76 0.59 0.62 0.71 0.74 0.65 0.56 0.57 0.64 0.75 0.84
0.19 0.24 0.21 0.11 0.06 0.04 0.03 0.03 0.03 0.04 0.05 0.07 0.06 0.06 0.07 0.10 0.16 0.26 0.38 0.50 0.61 0.71 0.79 0.86 0.92 1.01 1.02 0.88 0.70 0.63 0.65 0.78 0.80 0.68 0.60 0.61 0.66 0.69
0.22 0.16 0.12 0.08 0.06 0.04 0.02 0.02 0.02 0.02 0.03 0.04 0.05 0.06 0.07 0.09 0.13 0.21 0.34 0.44 0.58 0.70 0.80 0.93 1.03 1.11 1.18 1.15 1.02 0.84 0.73 0.72 0.79 0.78 0.68 0.68 0.74 0.74
0.19 0.15 0.10 0.07 0.05 0.04 0.03 0.02 0.02 0.02 0.03 0.05 0.06 0.07 0.10 0.12 0.14 0.18 0.28 0.40 0.51 0.62 0.72 0.87 1.04 1.20 1.37 1.47 1.33 1.08 0.87 0.82 0.90 0.95 0.82 0.73 0.78 0.76
0.13 0.09 0.07 0.06 0.05 0.04 0.03 0.03 0.03 0.02 0.04 0.06 0.07 0.08 0.11 0.14 0.16 0.19 0.25 0.36 0.47 0.57 0.67 0.77 0.95 1.18 1.33 1.44 1.52 1.30 1.01 0.87 0.95 1.11 1.06 0.81 0.71 0.69
0.09 0.08 0.06 0.05 0.05 0.05 0.04 0.04 0.03 0.03 0.03 0.05 0.06 0.07 0.11 0.16 0.19 0.20 0.26 0.38 0.48 0.57 0.65 0.77 0.94 1.11 1.20 1.11 1.16 1.34 1.24 1.01 0.96 1.11 1.15 0.96 0.86 0.92
0.07 0.06 0.06 0.06 0.06 0.06 0.05 0.04 0.04 0.04 0.04 0.05 0.06 0.07 0.10 0.15 0.18 0.20 0.25 0.35 0.49 0.58 0.66 0.76 0.94 1.10 1.17 1.12 1.15 1.32 1.39 1.34 1.14 1.06 1.02 0.93 0.92 0.99
0.07 0.08 0.06 0.06 0.07 0.06 0.06 0.05 0.05 0.04 0.04 0.05 0.06 0.07 0.09 0.14 0.18 0.20 0.25 0.34 0.45 0.55 0.64 0.74 0.87 1.08 1.29 1.35 1.35 1.35 1.39 1.44 1.51 1.42 1.22 0.92 0.75 0.75
0.12 0.10 0.09 0.08 0.08 0.07 0.07 0.06 0.05 0.05 0.04 0.06 0.07 0.08 0.11 0.15 0.17 0.21 0.26 0.33 0.42 0.49 0.57 0.69 0.87 1.09 1.31 1.36 1.36 1.33 1.26 1.24 1.31 1.40 1.57 1.38 0.96 0.68